MENDUMS POND: From 09/18/2018 00:00 to 11/19/2018 00:00

Date LAKE ELEVATION [FT] PRECIPITATION INCREMENT [IN] WATER TEMPERATURE [F] PRECIPITATION TOTAL [IN] AIR TEMPERATURE [F] RESERVOIR RELEASE [CFS]
11/17/2018 16:00 -- -- -- -- -- 36.0
11/17/2018 15:00 224.45 0.06 41.6 -- 43.5 35.8
11/17/2018 14:00 224.45 0.00 41.6 -- 44.7 36.0
11/17/2018 13:00 224.46 0.01 41.6 -- 42.6 36.0
11/17/2018 12:00 224.45 0.02 41.5 -- 43.9 36.0
11/17/2018 11:00 224.47 0.00 41.5 -- 40.5 36.0
11/17/2018 10:00 224.46 0.00 41.5 -- 31.8 36.0
11/17/2018 09:00 224.48 0.00 41.5 -- 28.2 36.0
11/17/2018 08:00 224.48 0.00 41.5 -- 26.1 36.0
11/17/2018 07:00 224.48 0.00 41.5 -- 24.4 36.5
11/17/2018 06:00 224.49 0.00 41.6 -- 23.1 37.0
11/17/2018 05:00 224.50 0.00 41.6 -- 22.5 37.0
11/17/2018 04:00 224.50 0.00 41.6 -- 22.9 37.0
11/17/2018 03:00 224.52 0.00 41.6 -- 22.9 37.0
11/17/2018 02:00 224.52 0.00 41.7 -- 23.3 37.8
11/17/2018 01:00 224.52 0.00 41.6 -- 24.2 38.0
11/17/2018 00:00 224.53 0.00 41.7 -- 25.2 38.0
11/16/2018 23:00 224.54 0.00 41.8 -- 26.3 38.0
11/16/2018 22:00 224.54 0.00 41.8 -- 28.3 38.8
11/16/2018 21:00 224.54 0.00 41.8 -- 29.5 39.0
11/16/2018 20:00 224.55 0.00 41.9 -- 32.1 39.3
11/16/2018 19:00 224.56 0.00 41.9 -- 32.5 40.0
11/16/2018 18:00 224.57 0.00 41.9 -- 33.4 39.8
11/16/2018 17:00 224.57 0.00 41.9 -- 33.8 40.5
11/16/2018 16:00 224.58 0.00 41.9 -- 33.8 40.8
11/16/2018 15:00 224.58 0.00 41.8 -- 32.9 41.3
11/16/2018 14:00 224.59 0.00 41.8 -- 32.3 41.3
11/16/2018 13:00 224.58 0.00 41.8 -- 30.4 43.0
11/16/2018 12:00 224.61 0.00 41.7 -- 29.3 42.8
11/16/2018 11:00 224.62 0.00 41.7 -- 29.7 43.5
11/16/2018 10:00 224.62 0.00 41.7 -- 28.6 43.8
11/16/2018 09:00 224.63 0.00 41.8 -- 29.1 43.5
11/16/2018 08:00 224.62 0.00 41.9 -- 29.7 44.0
11/16/2018 07:00 224.62 0.00 41.9 -- 29.6 43.5
11/16/2018 06:00 224.63 0.00 42.2 -- 28.4 44.0
11/16/2018 05:00 224.61 0.00 42.3 -- 28.1 44.0
11/16/2018 04:00 224.63 0.00 42.3 -- 28.1 44.5
11/16/2018 03:00 224.61 0.00 42.3 -- 28.1 43.8
11/16/2018 02:00 224.61 0.00 42.6 -- 27.3 43.3
11/16/2018 01:00 224.61 0.00 42.7 -- 26.7 43.5
11/16/2018 00:00 224.61 0.00 42.9 0.00 25.9 43.5
11/15/2018 23:00 224.61 0.00 43.0 -- 25.8 43.5
11/15/2018 22:00 224.62 0.00 43.2 -- 27.8 44.3
11/15/2018 21:00 224.63 0.00 43.2 -- 28.0 44.8
11/15/2018 20:00 224.63 0.00 43.2 -- 27.3 45.0
11/15/2018 19:00 224.64 0.00 43.3 -- 27.3 46.3
11/15/2018 18:00 224.65 0.00 43.3 -- 27.4 46.8
11/15/2018 17:00 224.65 0.00 43.3 -- 28.2 47.3
11/15/2018 16:00 224.67 0.00 43.3 -- 28.6 48.0
11/15/2018 15:00 224.66 0.00 43.2 -- 28.7 48.0
11/15/2018 14:00 224.68 0.00 43.2 -- 28.4 49.3
11/15/2018 13:00 224.69 0.00 43.2 -- 27.4 50.8
11/15/2018 12:00 224.70 0.00 43.1 -- 27.1 51.0
11/15/2018 11:00 224.70 0.00 43.1 -- 24.1 43.5
11/15/2018 10:00 224.71 0.00 43.1 -- 21.5 41.0
11/15/2018 09:00 224.71 0.00 43.1 -- 19.6 42.0
11/15/2018 08:00 224.72 0.00 43.2 -- 18.0 41.8
11/15/2018 07:00 224.71 0.00 43.2 -- 17.6 42.3
11/15/2018 06:00 224.73 0.00 43.2 -- 17.1 43.0
11/15/2018 05:00 224.73 0.00 43.2 -- 17.1 43.5
11/15/2018 04:00 224.74 0.00 43.2 -- 17.5 44.0
11/15/2018 03:00 224.74 0.00 43.3 -- 18.0 44.3
11/15/2018 02:00 224.75 0.00 43.3 -- 18.0 44.8
11/15/2018 01:00 224.75 0.00 43.5 -- 18.7 45.3
11/15/2018 00:00 224.76 0.00 43.6 0.00 19.2 45.5
11/14/2018 23:00 224.76 0.00 43.7 -- 19.8 47.0
11/14/2018 22:00 224.79 0.00 43.7 -- 20.1 47.3
11/14/2018 21:00 224.77 0.00 43.9 -- 21.1 46.5
11/14/2018 20:00 224.77 0.00 43.9 -- 21.9 47.3
11/14/2018 19:00 224.79 0.00 44.0 -- 23.0 48.8
11/14/2018 18:00 224.76 0.00 44.1 -- 24.9 48.8
11/14/2018 17:00 224.79 0.00 44.3 -- 27.4 48.8
11/14/2018 16:00 224.79 0.00 44.4 -- 30.0 50.0
11/14/2018 15:00 224.77 0.00 44.4 -- 31.0 47.3
11/14/2018 14:00 224.82 0.00 44.4 -- 29.7 48.8
11/14/2018 13:00 224.83 0.00 44.3 -- 30.7 51.8
11/14/2018 12:00 224.79 0.00 44.3 -- 30.6 46.0
11/14/2018 11:00 224.80 0.00 44.4 -- 28.5 50.3
11/14/2018 10:00 224.79 0.00 44.4 -- 27.6 51.0
11/14/2018 09:00 224.79 0.00 44.5 -- 26.0 49.5
11/14/2018 08:00 224.81 0.00 44.6 -- 25.7 50.8
11/14/2018 07:00 224.79 0.00 44.6 -- 26.0 50.3
11/14/2018 06:00 224.79 0.00 44.7 -- 26.9 50.8
11/14/2018 05:00 224.80 0.00 44.7 -- 27.7 50.8
11/14/2018 04:00 224.79 0.00 44.8 -- 28.6 49.8
11/14/2018 03:00 224.78 0.00 44.9 -- 29.8 47.8
11/14/2018 02:00 224.81 0.00 45.0 -- 31.7 50.8
11/14/2018 01:00 224.77 0.00 45.1 -- 34.7 49.8
11/14/2018 00:00 224.79 0.00 45.1 0.00 36.9 49.8
11/13/2018 23:00 224.77 0.00 45.1 -- 38.6 48.3
11/13/2018 22:00 224.78 0.00 45.2 -- 38.7 47.5
11/13/2018 21:00 224.77 0.00 45.2 -- 39.2 46.5
11/13/2018 20:00 224.76 0.00 45.2 -- 39.1 45.0
11/13/2018 19:00 224.74 0.00 45.2 -- 39.9 43.8
11/13/2018 18:00 224.73 0.00 45.3 -- 40.9 42.5
11/13/2018 17:00 224.72 0.00 45.3 -- 41.5 41.8
11/13/2018 16:00 224.70 0.00 45.3 -- 41.4 39.8
11/13/2018 15:00 224.69 0.04 45.2 -- 42.1 39.0
11/13/2018 14:00 224.68 0.09 45.1 -- 42.9 37.0
11/13/2018 13:00 224.65 0.16 45.1 -- 45.0 34.3
11/13/2018 12:00 224.63 0.10 45.1 -- 45.1 33.8
11/13/2018 11:00 224.62 0.14 45.2 -- 45.1 32.5
11/13/2018 10:00 224.59 0.16 45.2 -- 44.1 31.0
11/13/2018 09:00 224.58 0.13 45.2 -- 43.1 30.0
11/13/2018 08:00 224.57 0.15 45.2 -- 38.7 29.5
11/13/2018 07:00 224.55 0.12 45.2 -- 37.9 28.5
11/13/2018 06:00 224.54 0.09 45.2 -- 35.9 28.0
11/13/2018 05:00 224.54 0.08 45.3 -- 34.9 28.0
11/13/2018 04:00 224.54 0.06 45.3 -- 34.4 28.0
11/13/2018 03:00 224.54 0.00 45.4 -- 34.5 28.0
11/13/2018 02:00 224.54 0.00 45.4 -- 34.5 28.0
11/13/2018 01:00 224.53 0.00 45.4 -- 32.9 28.0
11/13/2018 00:00 224.54 0.00 45.5 1.32 32.8 28.0
11/12/2018 23:00 224.55 0.00 45.5 -- 31.9 28.0
11/12/2018 22:00 224.55 0.00 45.5 -- 31.1 29.0
11/12/2018 21:00 224.56 0.00 45.5 -- 30.7 29.0
11/12/2018 20:00 224.55 0.00 45.5 -- 30.6 29.0
11/12/2018 19:00 224.57 0.00 45.5 -- 32.3 29.5
11/12/2018 18:00 224.57 0.00 45.5 -- 33.8 30.0
11/12/2018 17:00 224.57 0.00 45.4 -- 38.8 30.0
11/12/2018 16:00 224.58 0.00 45.4 -- 44.3 30.5
11/12/2018 15:00 224.58 0.00 45.4 -- 45.9 30.8
11/12/2018 14:00 224.57 0.00 45.4 -- 44.7 30.8
11/12/2018 13:00 224.59 0.00 45.4 -- 44.6 31.5
11/12/2018 12:00 224.60 0.00 45.3 -- 41.5 31.3
11/12/2018 11:00 224.60 0.00 45.3 -- 38.8 31.5
11/12/2018 10:00 224.60 0.00 45.4 -- 32.2 32.0
11/12/2018 09:00 224.60 0.00 45.4 -- 28.4 32.0
11/12/2018 08:00 224.61 0.00 45.5 -- 25.9 32.3
11/12/2018 07:00 224.61 0.00 45.5 -- 24.0 33.0
11/12/2018 06:00 224.62 0.00 45.5 -- 23.8 33.5
11/12/2018 05:00 224.62 0.00 45.6 -- 24.7 33.5
11/12/2018 04:00 224.63 0.00 45.7 -- 26.0 34.0
11/12/2018 03:00 224.63 0.00 45.7 -- 26.6 34.3
11/12/2018 02:00 224.63 0.00 45.8 -- 27.6 34.3
11/12/2018 01:00 224.64 0.00 45.8 -- 27.6 35.0
11/12/2018 00:00 224.64 0.00 45.9 0.00 27.8 35.0
11/11/2018 23:00 224.65 0.00 45.9 -- 27.6 35.8
11/11/2018 22:00 224.65 0.00 45.9 -- 28.6 35.8
11/11/2018 21:00 224.65 0.00 45.8 -- 28.3 36.3
11/11/2018 20:00 224.66 0.00 45.9 -- 28.3 36.8
11/11/2018 19:00 224.66 0.00 45.9 -- 29.0 37.0
11/11/2018 18:00 224.67 0.00 46.1 -- 34.5 37.3
11/11/2018 17:00 224.67 0.00 45.8 -- 38.0 37.8
11/11/2018 16:00 224.67 0.00 45.8 -- 40.2 37.0
11/11/2018 15:00 224.69 0.00 45.8 -- 40.4 39.8
11/11/2018 14:00 224.69 0.00 45.7 -- 40.0 38.3
11/11/2018 13:00 224.66 0.00 45.8 -- 38.5 37.5
11/11/2018 12:00 224.67 0.00 45.8 -- 36.6 40.0
11/11/2018 11:00 224.69 0.00 45.7 -- 36.5 39.0
11/11/2018 10:00 224.68 0.00 45.8 -- 33.2 38.5
11/11/2018 09:00 224.68 0.00 45.9 -- 31.5 40.3
11/11/2018 08:00 224.70 0.00 45.9 -- 30.3 40.3
11/11/2018 07:00 224.70 0.00 45.9 -- 30.6 40.5
11/11/2018 06:00 224.70 0.00 46.0 -- 30.6 40.8
11/11/2018 05:00 224.70 0.00 46.0 -- 31.8 41.3
11/11/2018 04:00 224.72 0.00 46.1 -- 32.0 41.8
11/11/2018 03:00 224.72 0.00 46.2 -- 32.8 41.8
11/11/2018 02:00 224.72 0.00 46.2 -- 33.5 42.0
11/11/2018 01:00 224.73 0.00 46.4 -- 34.0 43.3
11/11/2018 00:00 224.72 0.00 46.5 0.00 34.0 42.0
11/10/2018 23:00 224.74 0.00 46.5 -- 34.4 43.5
11/10/2018 22:00 224.73 0.00 46.6 -- 34.4 43.5
11/10/2018 21:00 224.74 0.00 46.7 -- 34.0 44.5
11/10/2018 20:00 224.74 0.00 46.8 -- 34.7 43.5
11/10/2018 19:00 224.73 0.00 46.8 -- 35.5 44.3
11/10/2018 18:00 224.74 0.00 46.9 -- 37.5 45.5
11/10/2018 17:00 224.74 0.00 46.9 -- 39.8 44.5
11/10/2018 16:00 224.76 0.00 46.9 -- 40.2 46.0
11/10/2018 15:00 224.75 0.00 46.9 -- 41.1 44.5
11/10/2018 14:00 224.77 0.00 46.9 -- 43.0 45.3
11/10/2018 13:00 224.75 0.00 46.9 -- 43.2 43.3
11/10/2018 12:00 224.73 0.00 46.9 -- 43.7 44.3
11/10/2018 11:00 224.75 0.01 46.9 -- 41.0 44.8
11/10/2018 10:00 224.73 0.00 46.9 -- 39.0 42.5
11/10/2018 09:00 224.73 0.01 46.9 -- 38.5 44.0
11/10/2018 08:00 224.74 0.00 46.9 -- 38.8 43.5
11/10/2018 07:00 224.72 0.01 47.0 -- 39.3 42.5
11/10/2018 06:00 224.74 0.01 47.0 -- 42.7 43.3
11/10/2018 05:00 224.73 0.05 47.0 -- 43.3 42.0
11/10/2018 04:00 224.73 0.02 47.0 -- 44.4 42.0
11/10/2018 03:00 224.74 0.04 47.0 -- 44.6 42.3
11/10/2018 02:00 224.71 0.15 47.0 -- 43.8 41.8
11/10/2018 01:00 224.72 0.17 47.0 -- 43.2 41.3
11/10/2018 00:00 224.71 0.16 47.0 0.47 42.4 38.5
11/09/2018 23:00 224.67 0.11 47.0 -- 41.9 39.3
11/09/2018 22:00 224.70 0.15 47.0 -- 41.0 38.5
11/09/2018 21:00 224.65 0.10 47.0 -- 40.3 35.8
11/09/2018 20:00 224.68 0.00 47.0 -- 41.9 40.3
11/09/2018 19:00 224.69 0.00 47.0 -- 42.4 38.5
11/09/2018 18:00 224.68 0.00 47.0 -- 43.3 38.3
11/09/2018 17:00 224.69 0.00 47.0 -- 43.6 40.0
11/09/2018 16:00 224.70 0.00 47.0 -- 44.3 40.8
11/09/2018 15:00 224.70 0.00 47.0 -- 44.2 40.5
11/09/2018 14:00 224.72 0.00 47.0 -- 44.9 43.0
11/09/2018 13:00 224.73 0.00 46.9 -- 45.4 42.8
11/09/2018 12:00 224.72 0.00 46.9 -- 45.0 43.3
11/09/2018 11:00 224.75 0.00 46.9 -- 43.2 45.0
11/09/2018 10:00 224.75 0.00 46.9 -- 37.6 45.5
11/09/2018 09:00 224.75 0.00 46.9 -- 31.9 46.3
11/09/2018 08:00 224.77 0.00 46.8 -- 28.6 47.8
11/09/2018 07:00 224.78 0.00 46.8 -- 28.5 48.5
11/09/2018 06:00 224.78 0.00 46.8 -- 28.9 49.3
11/09/2018 05:00 224.80 0.00 46.8 -- 30.1 50.5
11/09/2018 04:00 224.81 0.00 46.8 -- 29.8 52.0
11/09/2018 03:00 224.82 0.00 46.8 -- 29.7 53.0
11/09/2018 02:00 224.83 0.00 46.7 -- 31.5 54.3
11/09/2018 01:00 224.84 0.00 46.7 -- 32.7 56.3
11/09/2018 00:00 224.84 0.00 46.7 0.52 32.1 57.0
11/08/2018 23:00 224.87 0.00 46.7 -- 33.2 58.3
11/08/2018 22:00 224.87 0.00 46.7 -- 34.4 59.8
11/08/2018 21:00 224.89 0.00 46.7 -- 35.8 61.5
11/08/2018 20:00 224.90 0.00 46.7 -- 37.6 62.8
11/08/2018 19:00 224.91 0.00 46.7 -- 39.9 64.8
11/08/2018 18:00 224.93 0.00 46.7 -- 43.8 67.0
11/08/2018 17:00 224.95 0.00 46.7 -- 48.3 67.8
11/08/2018 16:00 224.96 0.00 46.7 -- 51.3 70.0
11/08/2018 15:00 224.98 0.00 46.7 -- 52.3 74.0
11/08/2018 14:00 224.98 0.00 46.6 -- 51.9 74.8
11/08/2018 13:00 225.00 0.00 46.6 -- 52.3 58.5
11/08/2018 12:00 225.01 0.00 46.6 -- 50.8 42.3
11/08/2018 11:00 225.02 0.00 46.6 -- 48.5 42.5
11/08/2018 10:00 225.01 0.00 46.7 -- 46.5 43.0
11/08/2018 09:00 225.02 0.00 46.7 -- 39.8 43.8
11/08/2018 08:00 225.02 0.00 46.7 -- 33.2 44.3
11/08/2018 07:00 225.03 0.00 46.8 -- 38.1 44.5
11/08/2018 06:00 225.03 0.00 46.8 -- 35.9 44.8
11/08/2018 05:00 225.03 0.00 46.8 -- 34.9 44.5
11/08/2018 04:00 225.04 0.00 46.9 -- 38.7 46.0
11/08/2018 03:00 225.04 0.00 46.9 -- 41.1 45.8
11/08/2018 02:00 225.04 0.00 46.9 -- 42.0 46.0
11/08/2018 01:00 225.05 0.00 46.9 -- 38.9 47.5
11/08/2018 00:00 225.05 0.00 46.9 0.00 42.3 47.3
11/07/2018 23:00 225.05 0.00 47.0 -- 38.0 47.5
11/07/2018 22:00 225.05 0.00 47.0 -- 38.6 47.8
11/07/2018 21:00 225.06 0.00 47.0 -- 40.0 48.3
11/07/2018 20:00 225.06 0.00 47.0 -- 42.5 48.5
11/07/2018 19:00 225.06 0.00 47.1 -- 46.7 48.8
11/07/2018 18:00 225.06 0.00 47.1 -- 52.8 48.8
11/07/2018 17:00 225.06 0.00 47.1 -- 55.6 49.8
11/07/2018 16:00 225.07 0.00 47.1 -- 58.9 49.3
11/07/2018 15:00 225.07 0.00 47.1 -- 59.9 49.5
11/07/2018 14:00 225.07 0.00 47.1 -- 59.9 49.5
11/07/2018 13:00 225.05 0.00 47.1 -- 58.7 49.5
11/07/2018 12:00 225.08 0.00 47.2 -- 56.7 49.8
11/07/2018 11:00 225.08 0.00 47.2 -- 54.4 49.8
11/07/2018 10:00 225.07 0.00 47.2 -- 49.9 50.0
11/07/2018 09:00 225.07 0.00 47.2 -- 44.1 50.0
11/07/2018 08:00 225.07 0.00 47.2 -- 40.2 50.0
11/07/2018 07:00 225.07 0.00 47.2 -- 40.2 50.0
11/07/2018 06:00 225.08 0.00 47.2 -- 41.6 50.0
11/07/2018 05:00 225.07 0.00 47.3 -- 43.2 50.0
11/07/2018 04:00 225.08 0.01 47.3 -- 43.1 51.3
11/07/2018 03:00 225.08 0.00 47.3 -- 44.9 50.8
11/07/2018 02:00 225.07 0.00 47.3 -- 47.9 49.8
11/07/2018 01:00 225.07 0.00 47.2 -- 47.2 50.3
11/07/2018 00:00 225.08 0.00 47.2 0.01 49.1 51.0
11/06/2018 23:00 225.08 0.00 47.2 -- 48.6 50.0
11/06/2018 22:00 225.07 0.01 47.2 -- 46.9 49.8
11/06/2018 21:00 225.08 0.04 47.2 -- 46.9 52.0
11/06/2018 20:00 225.06 0.07 47.2 -- 47.2 46.5
11/06/2018 19:00 225.05 0.00 47.2 -- 47.5 48.3
11/06/2018 18:00 225.07 0.01 47.2 -- 47.5 50.5
11/06/2018 17:00 225.07 0.05 47.2 -- 47.6 46.0
11/06/2018 16:00 225.02 0.06 47.2 -- 47.8 47.3
11/06/2018 15:00 225.06 0.05 47.2 -- 47.6 49.0
11/06/2018 14:00 225.05 0.09 47.2 -- 47.5 46.8
11/06/2018 13:00 225.05 0.00 47.2 -- 47.7 47.5
11/06/2018 12:00 225.06 0.00 47.2 -- 46.7 47.5
11/06/2018 11:00 225.05 0.01 47.2 -- 45.9 47.3
11/06/2018 10:00 225.06 0.00 47.2 -- 45.0 47.8
11/06/2018 09:00 225.06 0.00 47.2 -- 44.0 48.0
11/06/2018 08:00 225.06 0.01 47.2 -- 43.1 48.5
11/06/2018 07:00 225.07 0.01 47.2 -- 42.6 48.8
11/06/2018 06:00 225.06 0.01 47.2 -- 42.0 48.8
11/06/2018 05:00 225.06 0.00 47.2 -- 41.5 49.3
11/06/2018 04:00 225.07 0.01 47.2 -- 41.0 50.0
11/06/2018 03:00 225.08 0.01 47.2 -- 41.0 49.3
11/06/2018 02:00 225.08 0.03 47.2 -- 40.8 50.3
11/06/2018 01:00 225.07 0.01 47.3 -- 40.2 50.5
11/06/2018 00:00 225.07 0.07 47.3 0.48 39.6 50.3
11/05/2018 23:00 225.07 0.04 47.3 -- 39.8 50.3
11/05/2018 22:00 225.07 0.08 47.3 -- 39.5 49.0
11/05/2018 21:00 225.07 0.01 47.3 -- 39.7 49.5
11/05/2018 20:00 225.08 0.01 47.3 -- 39.7 50.3
11/05/2018 19:00 225.07 0.00 47.3 -- 40.3 49.5
11/05/2018 18:00 225.09 0.00 47.4 -- 40.3 51.8
11/05/2018 17:00 225.08 0.00 47.4 -- 40.2 51.3
11/05/2018 16:00 225.08 0.00 47.4 -- 39.9 52.0
11/05/2018 15:00 225.09 0.00 47.4 -- 40.2 52.5
11/05/2018 14:00 225.11 0.00 47.4 -- 40.6 53.5
11/05/2018 13:00 225.09 0.00 47.4 -- 40.0 53.0
11/05/2018 12:00 225.11 0.00 47.4 -- 39.1 55.0
11/05/2018 11:00 225.11 0.00 47.4 -- 37.9 54.8
11/05/2018 10:00 225.11 0.00 47.4 -- 36.9 56.3
11/05/2018 09:00 225.12 0.00 47.4 -- 36.1 57.0
11/05/2018 08:00 225.13 0.00 47.4 -- 35.3 57.8
11/05/2018 07:00 225.13 0.00 47.5 -- 35.6 57.5
11/05/2018 06:00 225.14 0.00 47.5 -- 34.4 59.0
11/05/2018 05:00 225.14 0.00 47.6 -- 32.8 59.8
11/05/2018 04:00 225.14 0.00 47.6 -- 31.8 59.8
11/05/2018 03:00 225.16 0.00 47.6 -- 32.7 62.0
11/05/2018 02:00 225.17 0.00 47.6 -- 31.7 63.0
11/05/2018 01:00 225.17 0.00 47.5 -- 30.6 63.5
11/05/2018 00:00 225.17 0.00 47.5 0.21 31.0 63.8
11/04/2018 23:00 225.18 0.00 47.5 -- 32.3 64.5
11/04/2018 22:00 225.18 0.00 47.5 -- 34.0 66.3
11/04/2018 21:00 225.19 0.00 47.5 -- 34.2 67.8
11/04/2018 20:00 225.20 0.00 47.5 -- 34.5 68.0
11/04/2018 19:00 225.20 0.00 47.4 -- 37.1 69.0
11/04/2018 18:00 225.21 0.00 47.4 -- 40.5 70.0
11/04/2018 17:00 225.22 0.00 47.4 -- 46.3 70.8
11/04/2018 16:00 225.22 0.00 47.5 -- 47.6 71.3
11/04/2018 15:00 225.24 0.00 47.4 -- 48.9 73.5
11/04/2018 14:00 225.22 0.00 47.4 -- 49.8 72.8
11/04/2018 13:00 225.24 0.00 47.3 -- 48.9 73.8
11/04/2018 12:00 225.23 0.00 47.3 -- 47.2 74.0
11/04/2018 11:00 225.26 0.00 47.4 -- 44.4 77.3
11/04/2018 10:00 225.24 0.00 47.4 -- 42.4 75.3
11/04/2018 09:00 225.26 0.00 47.5 -- 40.2 76.8
11/04/2018 08:00 225.27 0.00 47.5 -- 34.1 77.5
11/04/2018 07:00 225.27 0.00 47.5 -- 35.0 78.0
11/04/2018 06:00 225.27 0.00 47.6 -- 37.6 79.3
11/04/2018 05:00 225.28 0.00 47.6 -- 35.5 79.5
11/04/2018 04:00 225.28 0.00 47.6 -- 37.8 79.0
11/04/2018 03:00 225.29 0.00 47.7 -- 40.2 80.3
11/04/2018 02:00 225.29 0.00 47.7 -- 42.2 81.5
11/04/2018 01:00 225.28 0.00 47.7 -- 42.8 82.3
11/04/2018 00:00 225.30 0.00 47.8 0.00 42.8 82.8
11/03/2018 23:00 225.30 0.00 47.8 -- 43.6 81.5
11/03/2018 22:00 225.28 0.00 48.1 -- 44.0 80.0
11/03/2018 21:00 225.31 0.00 48.4 -- 45.3 83.0
11/03/2018 20:00 225.27 0.01 48.4 -- 45.8 80.3
11/03/2018 19:00 225.28 0.00 48.3 -- 46.6 80.3
11/03/2018 18:00 225.26 0.00 48.3 -- 48.3 76.8
11/03/2018 17:00 225.26 0.00 48.5 -- 48.5 79.3
11/03/2018 16:00 225.26 0.02 48.3 -- 52.6 76.3
11/03/2018 15:00 225.23 0.00 48.4 -- 52.3 71.5
11/03/2018 14:00 225.21 0.01 48.3 -- 52.1 70.0
11/03/2018 13:00 225.20 0.00 48.3 -- 53.0 66.0
11/03/2018 12:00 225.18 0.10 48.2 -- 51.7 63.5
11/03/2018 11:00 225.16 0.03 48.3 -- 50.6 60.3
11/03/2018 10:00 225.10 0.02 48.6 -- 49.5 54.3
11/03/2018 09:00 225.10 0.12 48.3 -- 49.2 51.8
11/03/2018 08:00 225.07 0.18 48.2 -- 49.4 48.0
11/03/2018 07:00 225.04 0.12 48.2 -- 49.4 43.8
11/03/2018 06:00 225.01 0.04 48.2 -- 49.2 41.3
11/03/2018 05:00 225.00 0.09 48.6 -- 49.0 37.0
11/03/2018 04:00 224.94 0.25 48.2 -- 49.3 33.3
11/03/2018 03:00 224.92 0.40 48.1 -- 49.4 31.0
11/03/2018 02:00 224.90 0.23 48.1 -- 49.3 27.5
11/03/2018 01:00 224.88 0.04 48.1 -- 48.9 25.5
11/03/2018 00:00 224.87 0.02 48.2 1.66 49.0 24.8
11/02/2018 23:00 224.86 0.00 48.2 -- 49.1 24.8
11/02/2018 22:00 224.86 0.00 48.1 -- 49.3 24.8
11/02/2018 21:00 224.86 0.01 48.1 -- 49.6 24.0
11/02/2018 20:00 224.84 0.01 48.1 -- 50.0 22.3
11/02/2018 19:00 224.83 0.00 48.1 -- 50.4 21.5
11/02/2018 18:00 224.84 0.00 48.0 -- 50.4 22.8
11/02/2018 17:00 224.82 0.00 48.0 -- 50.5 20.5
11/02/2018 16:00 224.82 0.00 48.1 -- 50.6 21.3
11/02/2018 15:00 224.83 0.03 48.0 -- 50.8 21.3
11/02/2018 14:00 224.81 0.12 48.0 -- 49.2 19.0
11/02/2018 13:00 224.81 0.16 48.0 -- 48.4 17.3
11/02/2018 12:00 224.79 0.10 48.0 -- 47.9 18.3
11/02/2018 11:00 224.77 0.07 48.0 -- 48.0 15.8
11/02/2018 10:00 224.75 0.13 48.0 -- 47.8 15.3
11/02/2018 09:00 224.75 0.02 48.0 -- 47.9 15.0
11/02/2018 08:00 224.76 0.03 48.0 -- 47.5 14.5
11/02/2018 07:00 224.75 0.02 48.0 -- 47.4 13.8
11/02/2018 06:00 224.75 0.06 48.0 -- 47.1 14.3
11/02/2018 05:00 224.75 0.04 48.0 -- 46.8 13.8
11/02/2018 04:00 224.75 0.00 47.9 -- 46.7 13.8
11/02/2018 03:00 224.75 0.01 47.9 -- 46.7 14.5
11/02/2018 02:00 224.76 0.00 47.9 -- 46.8 14.0
11/02/2018 01:00 224.75 0.00 47.9 -- 46.8 14.0
11/02/2018 00:00 224.75 0.00 47.9 0.83 47.1 14.5
11/01/2018 23:00 224.75 0.00 47.9 -- 47.5 14.3
11/01/2018 22:00 224.75 0.00 47.9 -- 47.7 14.0
11/01/2018 21:00 224.75 0.01 47.9 -- 47.9 14.3
11/01/2018 20:00 224.75 0.00 47.9 -- 47.9 13.8
11/01/2018 19:00 224.75 0.00 47.9 -- 48.7 14.5
11/01/2018 18:00 224.76 0.01 47.9 -- 49.3 14.8
11/01/2018 17:00 224.75 0.00 47.9 -- 50.0 14.0
11/01/2018 16:00 224.75 0.01 47.9 -- 50.6 14.5
11/01/2018 15:00 224.76 0.01 47.9 -- 49.9 14.8
11/01/2018 14:00 224.75 0.04 47.9 -- 49.5 14.0
11/01/2018 13:00 224.75 0.02 47.9 -- 48.2 14.0
11/01/2018 12:00 224.76 0.00 47.9 -- 47.1 14.0
11/01/2018 11:00 224.75 0.00 47.9 -- 46.1 13.3
11/01/2018 10:00 224.75 0.00 47.9 -- 44.8 14.3
11/01/2018 09:00 224.74 0.00 47.9 -- 43.0 13.3
11/01/2018 08:00 224.75 0.00 47.9 -- 41.7 14.3
11/01/2018 07:00 224.76 0.00 47.9 -- 41.9 14.5
11/01/2018 06:00 224.75 0.00 47.9 -- 41.8 14.0
11/01/2018 05:00 224.75 0.00 47.9 -- 40.2 14.3
11/01/2018 04:00 224.76 0.00 47.9 -- 41.3 14.8
11/01/2018 03:00 224.75 0.00 47.9 -- 42.0 14.3
11/01/2018 02:00 224.76 0.00 47.9 -- 41.8 15.0
11/01/2018 01:00 224.75 0.00 47.9 -- 41.4 14.8
11/01/2018 00:00 224.75 0.00 47.9 0.10 41.2 14.5
10/31/2018 23:00 224.77 0.00 47.8 -- 41.4 15.8
10/31/2018 22:00 224.77 0.00 47.8 -- 42.4 15.0
10/31/2018 21:00 224.75 0.00 47.8 -- 43.0 14.8
10/31/2018 20:00 224.77 0.00 47.8 -- 42.6 16.0
10/31/2018 19:00 224.77 0.00 47.8 -- 42.5 15.3
10/31/2018 18:00 224.76 0.00 47.8 -- 45.9 15.3
10/31/2018 17:00 224.77 0.00 47.8 -- 47.9 16.0
10/31/2018 16:00 224.77 0.00 47.8 -- 47.6 15.5
10/31/2018 15:00 224.77 0.00 47.8 -- 45.7 15.8
10/31/2018 14:00 224.77 0.00 47.8 -- 44.7 16.0
10/31/2018 13:00 224.78 0.00 47.8 -- 43.0 16.0
10/31/2018 12:00 224.77 0.00 47.8 -- 40.2 16.3
10/31/2018 11:00 224.78 0.00 47.9 -- 38.3 16.3
10/31/2018 10:00 224.77 0.00 47.9 -- 32.3 16.0
10/31/2018 09:00 224.78 0.00 48.0 -- 29.4 16.3
10/31/2018 08:00 224.78 0.00 48.0 -- 28.6 16.5
10/31/2018 07:00 224.78 0.00 48.1 -- 27.9 16.0
10/31/2018 06:00 224.78 0.00 48.1 -- 28.9 16.5
10/31/2018 05:00 224.78 0.00 48.1 -- 29.6 16.8
10/31/2018 04:00 224.78 0.00 48.2 -- 30.1 16.5
10/31/2018 03:00 224.78 0.00 48.2 -- 31.0 17.0
10/31/2018 02:00 224.78 0.00 48.3 -- 30.3 17.0
10/31/2018 01:00 224.78 0.00 48.3 -- 29.8 16.8
10/31/2018 00:00 224.79 0.00 48.3 0.00 30.9 17.0
10/30/2018 23:00 224.78 0.00 48.4 -- 32.7 17.3
10/30/2018 22:00 224.79 0.00 48.4 -- 38.0 17.5
10/30/2018 21:00 224.79 0.00 48.4 -- 37.4 17.3
10/30/2018 20:00 224.79 0.00 48.5 -- 38.9 17.5
10/30/2018 19:00 224.79 0.00 48.6 -- 40.3 18.8
10/30/2018 18:00 224.80 0.00 48.6 -- 41.7 17.0
10/30/2018 17:00 224.80 0.00 48.6 -- 42.5 19.0
10/30/2018 16:00 224.81 0.00 48.5 -- 43.0 18.5
10/30/2018 15:00 224.79 0.00 48.4 -- 44.4 17.5
10/30/2018 14:00 224.80 0.00 48.4 -- 43.4 19.0
10/30/2018 13:00 224.81 0.00 48.4 -- 44.4 17.5
10/30/2018 12:00 224.78 0.00 48.4 -- 43.7 18.3
10/30/2018 11:00 224.81 0.00 48.3 -- 41.6 18.5
10/30/2018 10:00 224.80 0.00 48.4 -- 40.0 19.0
10/30/2018 09:00 224.80 0.00 48.4 -- 36.8 18.5
10/30/2018 08:00 224.80 0.00 48.4 -- 36.2 19.0
10/30/2018 07:00 224.79 0.00 48.5 -- 38.6 19.0
10/30/2018 06:00 224.81 0.00 48.5 -- 37.8 18.3
10/30/2018 05:00 224.80 0.00 48.5 -- 35.0 19.0
10/30/2018 04:00 224.80 0.00 48.6 -- 34.8 18.8
10/30/2018 03:00 224.80 0.00 48.6 -- 35.5 19.0
10/30/2018 02:00 224.81 0.00 48.7 -- 36.2 19.0
10/30/2018 01:00 224.80 0.00 48.7 -- 38.6 18.8
10/30/2018 00:00 224.81 0.00 48.7 0.00 39.7 19.0
10/29/2018 23:00 224.80 0.00 48.7 -- 38.3 18.5
10/29/2018 22:00 224.79 0.00 48.7 -- 38.0 18.3
10/29/2018 21:00 224.81 0.00 48.7 -- 38.7 19.0
10/29/2018 20:00 224.80 0.00 48.7 -- 40.6 18.3
10/29/2018 19:00 224.79 0.00 48.7 -- 43.3 18.3
10/29/2018 18:00 224.79 0.00 48.7 -- 46.7 18.0
10/29/2018 17:00 224.79 0.00 48.7 -- 48.5 17.5
10/29/2018 16:00 224.79 0.00 48.7 -- 47.2 17.5
10/29/2018 15:00 224.79 0.00 48.7 -- 49.2 17.5
10/29/2018 14:00 224.78 0.01 48.7 -- 47.1 17.0
10/29/2018 13:00 224.78 0.06 48.6 -- 45.3 17.3
10/29/2018 12:00 224.79 0.11 48.7 -- 44.1 17.0
10/29/2018 11:00 224.77 0.21 48.7 -- 42.8 14.5
10/29/2018 10:00 224.75 0.00 48.7 -- 41.7 14.3
10/29/2018 09:00 224.75 0.00 48.7 -- 40.9 14.0
10/29/2018 08:00 224.75 0.01 48.7 -- 40.4 13.8
10/29/2018 07:00 224.75 0.00 48.7 -- 40.1 14.0
10/29/2018 06:00 224.76 0.00 48.7 -- 39.8 14.3
10/29/2018 05:00 224.75 0.00 48.7 -- 39.0 13.8
10/29/2018 04:00 224.75 0.00 48.7 -- 38.7 14.3
10/29/2018 03:00 224.75 0.00 48.8 -- 39.7 14.0
10/29/2018 02:00 224.75 0.00 48.8 -- 39.4 14.0
10/29/2018 01:00 224.75 0.00 48.8 -- 38.5 14.3
10/29/2018 00:00 224.75 0.00 48.8 0.40 38.3 13.8
10/28/2018 23:00 224.75 0.00 48.8 -- 39.8 14.0
10/28/2018 22:00 224.75 0.00 48.8 -- 42.5 14.0
10/28/2018 21:00 224.75 0.00 48.8 -- 43.2 14.0
10/28/2018 20:00 224.75 0.00 48.8 -- 43.6 13.8
10/28/2018 19:00 224.75 0.00 48.8 -- 44.5 14.0
10/28/2018 18:00 224.75 0.00 48.8 -- 45.8 14.0
10/28/2018 17:00 224.75 0.00 48.8 -- 44.9 13.3
10/28/2018 16:00 224.75 0.00 48.8 -- 45.4 13.8
10/28/2018 15:00 224.75 0.00 48.8 -- 44.0 13.5
10/28/2018 14:00 224.74 0.00 48.8 -- 43.5 13.3
10/28/2018 13:00 224.75 0.00 48.8 -- 42.0 13.8
10/28/2018 12:00 224.74 0.00 48.8 -- 41.2 12.8
10/28/2018 11:00 224.74 0.01 48.8 -- 39.7 13.0
10/28/2018 10:00 224.74 0.00 48.8 -- 38.3 13.3
10/28/2018 09:00 224.74 0.00 48.8 -- 38.1 13.0
10/28/2018 08:00 224.73 0.01 48.8 -- 37.7 12.8
10/28/2018 07:00 224.75 0.00 48.8 -- 37.8 12.3
10/28/2018 06:00 224.73 0.00 48.9 -- 37.5 13.0
10/28/2018 05:00 224.75 0.00 48.9 -- 37.5 14.5
10/28/2018 04:00 224.74 0.00 49.0 -- 37.9 13.5
10/28/2018 03:00 224.75 0.00 49.0 -- 37.7 12.0
10/28/2018 02:00 224.73 0.00 49.1 -- 37.7 12.3
10/28/2018 01:00 224.75 0.01 49.2 -- 37.8 13.5
10/28/2018 00:00 224.73 0.01 49.2 0.03 37.8 13.0
10/27/2018 23:00 224.72 0.02 49.3 -- 37.7 13.3
10/27/2018 22:00 224.70 0.01 49.4 -- 37.9 11.8
10/27/2018 21:00 224.73 0.03 49.4 -- 38.3 11.5
10/27/2018 20:00 224.72 0.05 49.5 -- 38.6 12.5
10/27/2018 19:00 224.73 0.10 49.5 -- 38.7 11.5
10/27/2018 18:00 224.71 0.14 49.6 -- 38.6 10.3
10/27/2018 17:00 224.68 0.08 49.7 -- 39.3 9.8
10/27/2018 16:00 224.69 0.07 49.8 -- 39.1 9.5
10/27/2018 15:00 224.67 0.09 49.8 -- 38.4 7.8
10/27/2018 14:00 224.67 0.04 49.8 -- 37.9 8.5
10/27/2018 13:00 224.67 0.09 49.9 -- 37.8 6.8
10/27/2018 12:00 224.65 0.06 49.9 -- 37.1 6.8
10/27/2018 11:00 224.65 0.01 50.0 -- 37.0 7.0
10/27/2018 10:00 224.65 0.00 50.0 -- 38.4 6.3
10/27/2018 09:00 224.65 0.00 50.2 -- 37.5 6.3
10/27/2018 08:00 224.65 0.00 50.2 -- 36.5 6.3
10/27/2018 07:00 224.66 0.00 50.2 -- 36.4 7.0
10/27/2018 06:00 224.65 0.00 50.3 -- 36.2 6.5
10/27/2018 05:00 224.65 0.00 50.3 -- 35.4 6.8
10/27/2018 04:00 224.65 0.00 50.2 -- 35.6 6.8
10/27/2018 03:00 224.65 0.00 50.2 -- 34.7 6.8
10/27/2018 02:00 224.65 0.00 50.2 -- 33.9 6.8
10/27/2018 01:00 224.65 0.00 50.2 -- 34.3 6.8
10/27/2018 00:00 224.66 0.00 50.2 0.80 33.7 7.0
10/26/2018 23:00 224.65 0.00 50.2 -- 33.4 7.0
10/26/2018 22:00 224.65 0.00 50.2 -- 33.2 7.0
10/26/2018 21:00 224.65 0.00 50.1 -- 31.9 7.0
10/26/2018 20:00 224.66 0.00 50.1 -- 31.7 7.0
10/26/2018 19:00 224.65 0.00 50.1 -- 35.1 6.8
10/26/2018 18:00 224.66 0.00 50.0 -- 43.6 6.5
10/26/2018 17:00 224.64 0.00 50.0 -- 45.4 6.5
10/26/2018 16:00 224.66 0.00 50.0 -- 45.0 6.8
10/26/2018 15:00 224.65 0.00 50.2 -- 44.1 6.8
10/26/2018 14:00 224.66 0.00 50.2 -- 42.4 7.5
10/26/2018 13:00 224.66 0.00 50.1 -- 41.2 7.3
10/26/2018 12:00 224.67 0.00 50.2 -- 38.7 7.3
10/26/2018 11:00 224.64 0.00 50.3 -- 36.9 6.5
10/26/2018 10:00 224.69 0.00 50.3 -- 34.0 7.5
10/26/2018 09:00 224.66 0.00 50.4 -- 32.6 7.8
10/26/2018 08:00 224.66 0.00 50.5 -- 31.6 7.3
10/26/2018 07:00 224.66 0.00 50.6 -- 31.7 7.0
10/26/2018 06:00 224.66 0.00 50.7 -- 31.3 7.5
10/26/2018 05:00 224.66 0.00 50.8 -- 31.6 7.5
10/26/2018 04:00 224.67 0.00 50.9 -- 31.7 7.3
10/26/2018 03:00 224.66 0.00 51.0 -- 32.7 7.3
10/26/2018 02:00 224.67 0.00 51.1 -- 33.2 7.8
10/26/2018 01:00 224.66 0.00 51.2 -- 33.3 7.8
10/26/2018 00:00 224.66 0.00 51.2 0.00 33.9 7.5
10/25/2018 23:00 224.66 0.00 51.3 -- 34.8 8.5
10/25/2018 22:00 224.66 0.00 51.4 -- 35.2 7.0
10/25/2018 21:00 224.66 0.00 51.5 -- 35.2 7.8
10/25/2018 20:00 224.68 0.00 51.6 -- 35.8 7.8
10/25/2018 19:00 224.66 0.00 51.7 -- 36.7 8.0
10/25/2018 18:00 224.69 0.00 51.7 -- 38.6 8.0
10/25/2018 17:00 224.65 0.00 51.6 -- 41.7 7.8
10/25/2018 16:00 224.70 0.00 51.6 -- 43.1 10.0
10/25/2018 15:00 224.69 0.00 51.6 -- 41.6 8.3
10/25/2018 14:00 224.68 0.00 51.6 -- 42.4 8.5
10/25/2018 13:00 224.67 0.00 51.6 -- 42.5 7.3
10/25/2018 12:00 224.65 0.00 51.6 -- 42.7 8.3
10/25/2018 11:00 224.65 0.00 51.6 -- 40.7 8.0
10/25/2018 10:00 224.66 0.00 51.6 -- 39.9 7.5
10/25/2018 09:00 224.68 0.00 51.6 -- 37.9 7.8
10/25/2018 08:00 224.67 0.00 51.7 -- 37.0 8.0
10/25/2018 07:00 224.68 0.00 51.7 -- 33.4 8.0
10/25/2018 06:00 224.68 0.00 51.8 -- 32.6 7.8
10/25/2018 05:00 224.67 0.00 51.9 -- 33.1 7.8
10/25/2018 04:00 224.68 0.00 51.9 -- 32.9 8.3
10/25/2018 03:00 224.66 0.00 52.0 -- 33.4 7.3
10/25/2018 02:00 224.67 0.00 52.0 -- 32.2 8.0
10/25/2018 01:00 224.68 0.00 52.1 -- 36.0 8.0
10/25/2018 00:00 224.66 0.00 52.1 0.00 37.0 7.5
10/24/2018 23:00 224.68 0.00 52.2 -- 37.6 8.8
10/24/2018 22:00 224.66 0.00 52.3 -- 39.4 7.5
10/24/2018 21:00 224.67 0.00 52.3 -- 40.2 8.0
10/24/2018 20:00 224.69 0.00 52.4 -- 41.4 8.0
10/24/2018 19:00 224.68 0.00 52.4 -- 43.4 8.0
10/24/2018 18:00 224.68 0.00 52.5 -- 46.4 8.0
10/24/2018 17:00 224.68 0.00 52.6 -- 47.5 8.5
10/24/2018 16:00 224.67 0.00 52.6 -- 46.8 8.5
10/24/2018 15:00 224.67 0.00 52.5 -- 44.8 8.5
10/24/2018 14:00 224.67 0.01 52.5 -- 42.6 8.8
10/24/2018 13:00 224.68 0.01 52.5 -- 42.0 7.8
10/24/2018 12:00 224.67 0.01 52.6 -- 41.9 8.0
10/24/2018 11:00 224.67 0.01 52.6 -- 41.1 8.0
10/24/2018 10:00 224.66 0.00 52.6 -- 40.8 7.8
10/24/2018 09:00 224.66 0.00 52.6 -- 39.8 7.5
10/24/2018 08:00 224.67 0.00 52.7 -- 39.9 8.0
10/24/2018 07:00 224.67 0.00 52.7 -- 39.4 7.5
10/24/2018 06:00 224.66 0.00 52.8 -- 37.5 7.3
10/24/2018 05:00 224.67 0.00 52.8 -- 38.3 7.5
10/24/2018 04:00 224.66 0.00 52.9 -- 40.0 7.5
10/24/2018 03:00 224.67 0.00 52.9 -- 39.6 7.8
10/24/2018 02:00 224.67 0.00 53.0 -- 39.0 7.5
10/24/2018 01:00 224.66 0.00 53.0 -- 37.8 7.3
10/24/2018 00:00 224.67 0.00 53.0 0.04 38.3 7.5
10/23/2018 23:00 224.66 0.00 53.0 -- 38.7 7.5
10/23/2018 22:00 224.67 0.00 53.1 -- 39.2 7.8
10/23/2018 21:00 224.67 0.14 53.1 -- 39.6 7.5
10/23/2018 20:00 224.65 0.46 53.1 -- 39.9 7.0
10/23/2018 19:00 224.63 0.00 53.1 -- 50.2 3.8
10/23/2018 18:00 224.61 0.00 53.1 -- 50.9 3.8
10/23/2018 17:00 224.63 0.00 53.2 -- 50.9 4.3
10/23/2018 16:00 224.61 0.01 53.1 -- 50.8 4.0
10/23/2018 15:00 224.61 0.00 53.1 -- 49.5 4.0
10/23/2018 14:00 224.61 0.00 53.1 -- 52.5 4.0
10/23/2018 13:00 224.61 0.00 53.1 -- 51.0 4.0
10/23/2018 12:00 224.60 0.00 53.1 -- 49.8 4.0
10/23/2018 11:00 224.61 0.00 53.1 -- 46.2 4.0
10/23/2018 10:00 224.61 0.00 53.1 -- 41.5 4.0
10/23/2018 09:00 224.61 0.00 53.1 -- 37.6 4.0
10/23/2018 08:00 224.60 0.00 53.0 -- 37.2 4.0
10/23/2018 07:00 224.61 0.00 53.0 -- 37.6 4.0
10/23/2018 06:00 224.60 0.00 53.0 -- 37.7 4.0
10/23/2018 05:00 224.61 0.00 53.0 -- 37.9 4.0
10/23/2018 04:00 224.60 0.00 53.0 -- 38.0 4.0
10/23/2018 03:00 224.61 0.00 53.0 -- 38.0 4.0
10/23/2018 02:00 224.60 0.00 53.0 -- 38.4 4.0
10/23/2018 01:00 224.61 0.00 53.0 -- 38.8 4.0
10/23/2018 00:00 224.60 0.00 53.0 0.61 39.0 4.0
10/22/2018 23:00 224.61 0.00 53.0 -- 39.1 4.0
10/22/2018 22:00 224.61 0.00 53.0 -- 39.4 4.0
10/22/2018 21:00 224.61 0.00 53.0 -- 39.9 4.0
10/22/2018 20:00 224.61 0.00 52.9 -- 40.4 4.0
10/22/2018 19:00 224.61 0.00 52.9 -- 42.5 3.5
10/22/2018 18:00 224.60 0.00 52.9 -- 46.7 4.3
10/22/2018 17:00 224.63 0.00 52.9 -- 47.9 4.3
10/22/2018 16:00 224.61 0.00 53.0 -- 48.9 4.3
10/22/2018 15:00 224.63 0.00 52.9 -- 46.9 4.8
10/22/2018 14:00 224.61 0.00 52.8 -- 46.7 3.8
10/22/2018 13:00 224.62 0.00 52.8 -- 43.6 4.0
10/22/2018 12:00 224.59 0.00 52.8 -- 41.5 3.5
10/22/2018 11:00 224.61 0.00 52.9 -- 40.4 4.0
10/22/2018 10:00 224.61 0.00 52.9 -- 34.5 4.0
10/22/2018 09:00 224.60 0.00 52.9 -- 30.4 4.0
10/22/2018 08:00 224.62 0.00 53.1 -- 28.5 4.0
10/22/2018 07:00 224.61 0.00 53.1 -- 28.4 4.0
10/22/2018 06:00 224.61 0.00 53.2 -- 33.1 4.0
10/22/2018 05:00 224.61 0.00 53.2 -- 33.4 4.3
10/22/2018 04:00 224.62 0.00 53.3 -- 34.6 4.0
10/22/2018 03:00 224.61 0.00 53.4 -- 31.0 4.0
10/22/2018 02:00 224.61 0.00 53.5 -- 31.7 4.3
10/22/2018 01:00 224.61 0.00 53.5 -- 35.4 4.3
10/22/2018 00:00 224.61 0.00 53.6 0.00 36.5 4.3
10/21/2018 23:00 224.61 0.00 53.7 -- 36.9 4.0
10/21/2018 22:00 224.62 0.00 53.7 -- 35.7 4.5
10/21/2018 21:00 224.62 0.00 53.8 -- 36.2 4.3
10/21/2018 20:00 224.59 0.00 53.9 -- 36.9 4.0
10/21/2018 19:00 224.63 0.00 54.0 -- 37.5 4.3
10/21/2018 18:00 224.64 0.00 54.1 -- 39.4 5.0
10/21/2018 17:00 224.64 0.00 54.2 -- 39.8 5.3
10/21/2018 16:00 224.59 0.00 54.3 -- 40.4 3.8
10/21/2018 15:00 224.61 0.00 54.3 -- 40.6 4.3
10/21/2018 14:00 224.65 0.00 54.3 -- 43.1 5.8
10/21/2018 13:00 224.62 0.00 54.2 -- 43.4 4.3
10/21/2018 12:00 224.66 0.00 54.2 -- 42.5 6.3
10/21/2018 11:00 224.63 0.00 54.2 -- 42.0 5.0
10/21/2018 10:00 224.63 0.00 54.2 -- 43.0 5.3
10/21/2018 09:00 224.63 0.00 54.3 -- 44.3 5.0
10/21/2018 08:00 224.63 0.00 54.3 -- 45.4 5.0
10/21/2018 07:00 224.63 0.00 54.4 -- 46.0 5.0
10/21/2018 06:00 224.63 0.00 54.4 -- 46.4 5.0
10/21/2018 05:00 224.63 0.00 54.5 -- 42.0 5.0
10/21/2018 04:00 224.63 0.00 54.5 -- 44.6 5.3
10/21/2018 03:00 224.63 0.00 54.5 -- 40.2 5.0
10/21/2018 02:00 224.63 0.00 54.5 -- 39.1 5.0
10/21/2018 01:00 224.63 0.00 54.5 -- 39.6 5.0
10/21/2018 00:00 224.63 0.00 54.4 0.00 40.2 5.0
10/20/2018 23:00 224.63 0.00 54.5 -- 41.3 5.0
10/20/2018 22:00 224.63 0.00 54.5 -- 42.7 5.0
10/20/2018 21:00 224.63 0.00 54.5 -- 44.3 5.0
10/20/2018 20:00 224.63 0.00 54.5 -- 46.6 5.0
10/20/2018 19:00 224.63 0.00 54.5 -- 51.6 5.0
10/20/2018 18:00 224.63 0.00 54.3 -- 59.3 5.0
10/20/2018 17:00 224.63 0.00 54.3 -- 62.3 5.0
10/20/2018 16:00 224.63 0.00 54.4 -- 60.6 5.5
10/20/2018 15:00 224.65 0.00 54.7 -- 62.0 5.5
10/20/2018 14:00 224.63 0.00 54.9 -- 58.5 5.0
10/20/2018 13:00 224.62 0.00 54.9 -- 57.9 5.3
10/20/2018 12:00 224.65 0.00 54.9 -- 56.9 5.5
10/20/2018 11:00 224.63 0.00 54.9 -- 55.9 5.5
10/20/2018 10:00 224.63 0.00 54.9 -- 53.8 5.8
10/20/2018 09:00 224.63 0.00 54.8 -- 53.3 5.8
10/20/2018 08:00 224.65 0.00 54.8 -- 51.1 6.0
10/20/2018 07:00 224.63 0.00 54.8 -- 50.7 5.0
10/20/2018 06:00 224.63 0.00 54.8 -- 51.0 6.0
10/20/2018 05:00 224.63 0.00 54.8 -- 51.5 5.3
10/20/2018 04:00 224.63 0.00 54.9 -- 50.1 5.3
10/20/2018 03:00 224.64 0.00 54.8 -- 48.6 5.5
10/20/2018 02:00 224.63 0.00 54.8 -- 47.3 5.5
10/20/2018 01:00 224.65 0.00 54.8 -- 48.6 5.8
10/20/2018 00:00 224.62 0.00 54.8 0.00 50.5 5.0
10/19/2018 23:00 224.64 0.00 55.0 -- 51.9 6.0
10/19/2018 22:00 224.64 0.00 55.3 -- 46.7 6.0
10/19/2018 21:00 224.64 0.00 55.3 -- 48.7 6.0
10/19/2018 20:00 224.64 0.00 55.3 -- 50.4 6.0
10/19/2018 19:00 224.64 0.00 55.3 -- 51.9 6.0
10/19/2018 18:00 224.64 0.00 55.3 -- 56.7 6.0
10/19/2018 17:00 224.64 0.00 55.3 -- 57.5 5.8
10/19/2018 16:00 224.63 0.00 55.3 -- 57.5 6.0
10/19/2018 15:00 224.65 0.00 55.3 -- 55.8 6.5
10/19/2018 14:00 224.63 0.00 55.3 -- 53.6 5.8
10/19/2018 13:00 224.64 0.00 55.4 -- 50.4 6.0
10/19/2018 12:00 224.64 0.00 55.4 -- 47.0 6.0
10/19/2018 11:00 224.65 0.00 55.5 -- 43.4 6.0
10/19/2018 10:00 224.64 0.00 55.6 -- 36.5 6.0
10/19/2018 09:00 224.64 0.00 55.7 -- 32.3 6.0
10/19/2018 08:00 224.64 0.00 55.7 -- 30.0 6.0
10/19/2018 07:00 224.64 0.00 55.8 -- 30.4 6.0
10/19/2018 06:00 224.64 0.00 55.8 -- 31.5 6.0
10/19/2018 05:00 224.65 0.00 55.9 -- 31.4 6.3
10/19/2018 04:00 224.64 0.00 56.0 -- 30.8 6.0
10/19/2018 03:00 224.65 0.00 56.1 -- 31.2 6.0
10/19/2018 02:00 224.65 0.00 56.1 -- 29.0 6.0
10/19/2018 01:00 224.65 0.00 56.2 -- 29.1 6.0
10/19/2018 00:00 224.65 0.00 56.3 0.00 29.1 6.3
10/18/2018 23:00 224.65 0.00 56.4 -- 28.7 6.0
10/18/2018 22:00 224.65 0.00 56.5 -- 30.0 6.0
10/18/2018 21:00 224.65 0.00 56.5 -- 31.1 6.8
10/18/2018 20:00 224.65 0.00 56.6 -- 33.3 6.5
10/18/2018 19:00 224.66 0.00 56.6 -- 39.0 7.5
10/18/2018 18:00 224.66 0.00 56.7 -- 41.9 6.5
10/18/2018 17:00 224.67 0.00 56.6 -- 43.7 8.0
10/18/2018 16:00 224.64 0.00 56.6 -- 43.2 7.0
10/18/2018 15:00 224.66 0.00 56.9 -- 42.0 7.8
10/18/2018 14:00 224.64 0.00 56.8 -- 41.9 7.8
10/18/2018 13:00 224.64 0.00 56.8 -- 40.1 6.5
10/18/2018 12:00 224.69 0.00 56.8 -- 39.9 8.5
10/18/2018 11:00 224.65 0.00 56.8 -- 38.1 7.0
10/18/2018 10:00 224.71 0.00 56.9 -- 36.1 9.0
10/18/2018 09:00 224.66 0.00 56.9 -- 34.5 7.5
10/18/2018 08:00 224.67 0.00 57.1 -- 34.0 7.5
10/18/2018 07:00 224.67 0.00 57.3 -- 34.4 7.8
10/18/2018 06:00 224.67 0.00 57.3 -- 34.3 7.8
10/18/2018 05:00 224.68 0.00 57.4 -- 34.7 7.5
10/18/2018 04:00 224.66 0.00 57.5 -- 34.4 7.8
10/18/2018 03:00 224.68 0.00 57.6 -- 35.8 8.0
10/18/2018 02:00 224.67 0.00 57.7 -- 37.0 8.0
10/18/2018 01:00 224.66 0.01 57.7 -- 38.2 7.5
10/18/2018 00:00 224.67 0.00 57.8 0.01 39.7 8.0
10/17/2018 23:00 224.67 0.00 57.8 -- 39.1 7.8
10/17/2018 22:00 224.67 0.00 57.9 -- 41.5 8.3
10/17/2018 21:00 224.69 0.01 57.8 -- 43.0 8.0
10/17/2018 20:00 224.67 0.00 57.9 -- 45.4 7.5
10/17/2018 19:00 224.68 0.00 57.9 -- 45.2 8.5
10/17/2018 18:00 224.69 0.02 57.9 -- 45.3 8.0
10/17/2018 17:00 224.69 0.00 57.9 -- 49.4 9.0
10/17/2018 16:00 224.67 0.00 57.9 -- 58.1 8.0
10/17/2018 15:00 224.66 0.00 58.0 -- 58.7 7.5
10/17/2018 14:00 224.67 0.00 58.0 -- 56.9 7.8
10/17/2018 13:00 224.67 0.00 58.0 -- 54.9 7.8
10/17/2018 12:00 224.67 0.00 58.0 -- 50.8 8.0
10/17/2018 11:00 224.68 0.00 58.0 -- 44.8 8.0
10/17/2018 10:00 224.68 0.00 58.1 -- 42.2 8.0
10/17/2018 09:00 224.68 0.00 58.1 -- 40.1 8.0
10/17/2018 08:00 224.68 0.00 58.1 -- 38.0 8.0
10/17/2018 07:00 224.68 0.00 58.2 -- 37.5 8.0
10/17/2018 06:00 224.68 0.00 58.2 -- 36.3 8.0
10/17/2018 05:00 224.68 0.00 58.3 -- 34.8 8.0
10/17/2018 04:00 224.68 0.00 58.3 -- 33.1 8.0
10/17/2018 03:00 224.68 0.00 58.4 -- 33.8 8.8
10/17/2018 02:00 224.68 0.00 58.4 -- 34.8 8.3
10/17/2018 01:00 224.68 0.00 58.4 -- 36.5 8.8
10/17/2018 00:00 224.68 0.00 58.4 0.03 37.6 9.0
10/16/2018 23:00 224.68 0.00 58.4 -- 38.5 9.0
10/16/2018 22:00 224.69 0.00 58.4 -- 39.0 9.0
10/16/2018 21:00 224.68 0.00 58.5 -- 40.3 9.0
10/16/2018 20:00 224.69 0.00 58.5 -- 42.0 9.0
10/16/2018 19:00 224.69 0.00 58.5 -- 46.4 9.0
10/16/2018 18:00 224.69 0.00 58.5 -- 53.9 8.8
10/16/2018 17:00 224.68 0.00 58.5 -- 55.7 8.8
10/16/2018 16:00 224.71 0.00 58.4 -- 55.7 10.0
10/16/2018 15:00 224.70 0.00 58.4 -- 55.7 9.8
10/16/2018 14:00 224.70 0.00 58.5 -- 54.2 8.3
10/16/2018 13:00 224.71 0.00 58.5 -- 52.3 10.0
10/16/2018 12:00 224.70 0.00 58.6 -- 50.4 10.3
10/16/2018 11:00 224.71 0.00 58.6 -- 47.7 9.5
10/16/2018 10:00 224.71 0.00 58.7 -- 44.4 9.8
10/16/2018 09:00 224.70 0.00 58.7 -- 42.5 9.8
10/16/2018 08:00 224.71 0.00 58.8 -- 42.0 9.8
10/16/2018 07:00 224.72 0.00 58.9 -- 43.6 11.0
10/16/2018 06:00 224.70 0.00 59.0 -- 45.8 9.5
10/16/2018 05:00 224.66 0.00 59.1 -- 49.0 7.0
10/16/2018 04:00 224.67 0.00 59.1 -- 51.7 9.5
10/16/2018 03:00 224.70 0.00 59.2 -- 53.8 10.5
10/16/2018 02:00 224.70 0.03 59.3 -- 54.2 11.5
10/16/2018 01:00 224.74 0.09 59.3 -- 56.3 11.3
10/16/2018 00:00 224.71 0.00 59.3 0.12 60.3 10.3
10/15/2018 23:00 224.70 0.01 59.3 -- 58.3 10.0
10/15/2018 22:00 224.71 0.00 59.3 -- 51.3 10.3
10/15/2018 21:00 224.70 0.00 59.4 -- 50.1 9.5
10/15/2018 20:00 224.70 0.00 59.4 -- 49.9 10.0
10/15/2018 19:00 224.71 0.00 59.4 -- 49.5 10.0
10/15/2018 18:00 224.70 0.00 59.4 -- 49.5 10.3
10/15/2018 17:00 224.70 0.00 59.4 -- 49.0 10.0
10/15/2018 16:00 224.70 0.00 59.4 -- 47.4 10.0
10/15/2018 15:00 224.70 0.01 59.5 -- 46.3 9.8
10/15/2018 14:00 224.70 0.01 59.5 -- 44.9 9.5
10/15/2018 13:00 224.69 0.02 59.5 -- 44.2 9.3
10/15/2018 12:00 224.69 0.01 59.5 -- 43.4 9.0
10/15/2018 11:00 224.69 0.00 59.6 -- 42.4 9.3
10/15/2018 10:00 224.69 0.00 59.6 -- 40.8 9.0
10/15/2018 09:00 224.69 0.00 59.6 -- 35.7 9.0
10/15/2018 08:00 224.70 0.00 59.7 -- 34.9 10.0
10/15/2018 07:00 224.70 0.00 59.8 -- 34.9 10.0
10/15/2018 06:00 224.70 0.00 59.9 -- 34.7 10.0
10/15/2018 05:00 224.70 0.00 60.0 -- 35.0 10.0
10/15/2018 04:00 224.70 0.00 60.0 -- 36.3 10.0
10/15/2018 03:00 224.70 0.00 60.1 -- 36.9 9.8
10/15/2018 02:00 224.70 0.00 60.1 -- 37.6 10.0
10/15/2018 01:00 224.70 0.00 60.0 -- 38.7 10.0
10/15/2018 00:00 224.70 0.00 60.0 0.06 38.3 10.0
10/14/2018 23:00 224.71 0.00 60.1 -- 39.4 10.3
10/14/2018 22:00 224.71 0.00 60.1 -- 40.4 10.0
10/14/2018 21:00 224.71 0.00 59.9 -- 41.5 10.3
10/14/2018 20:00 224.71 0.00 59.7 -- 44.0 10.3
10/14/2018 19:00 224.71 0.00 60.2 -- 47.8 10.0
10/14/2018 18:00 224.70 0.00 60.3 -- 55.8 10.3
10/14/2018 17:00 224.71 0.00 60.4 -- 57.3 10.5
10/14/2018 16:00 224.71 0.00 60.3 -- 56.9 10.5
10/14/2018 15:00 224.71 0.00 60.3 -- 56.4 10.8
10/14/2018 14:00 224.71 0.00 60.2 -- 53.7 11.3
10/14/2018 13:00 224.71 0.00 60.4 -- 52.3 11.0
10/14/2018 12:00 224.71 0.00 60.2 -- 49.8 11.0
10/14/2018 11:00 224.72 0.00 60.4 -- 48.5 11.0
10/14/2018 10:00 224.72 0.00 60.5 -- 41.8 11.3
10/14/2018 09:00 224.72 0.00 60.5 -- 36.6 11.0
10/14/2018 08:00 224.72 0.00 60.5 -- 33.8 11.0
10/14/2018 07:00 224.72 0.00 60.4 -- 34.5 11.8
10/14/2018 06:00 224.72 0.00 60.4 -- 34.3 11.8
10/14/2018 05:00 224.72 -- 60.3 -- 34.5 11.3
10/14/2018 04:00 224.72 -- 60.3 -- 34.9 11.5
10/14/2018 03:00 224.73 0.00 60.3 -- 36.9 12.0
10/14/2018 02:00 224.73 0.00 60.3 -- 38.2 12.0
10/14/2018 01:00 224.73 0.00 60.3 -- 38.2 12.0
10/14/2018 00:00 224.73 0.00 60.2 -- 38.6 12.0
10/13/2018 23:00 224.72 0.00 60.3 -- 39.3 12.0
10/13/2018 22:00 224.72 0.00 60.3 -- 39.4 12.3
10/13/2018 21:00 224.73 0.00 60.3 -- 41.0 12.0
10/13/2018 20:00 224.73 0.00 60.3 -- 44.3 12.0
10/13/2018 19:00 224.73 0.00 60.3 -- 46.2 12.3
10/13/2018 18:00 224.74 0.00 60.2 -- 50.2 13.0
10/13/2018 17:00 224.73 0.00 60.4 -- 50.5 12.0
10/13/2018 16:00 224.73 0.00 60.4 -- 47.7 12.3
10/13/2018 15:00 224.73 0.00 60.4 -- 45.9 12.3
10/13/2018 14:00 224.74 0.01 60.4 -- 45.9 13.0
10/13/2018 13:00 224.73 0.00 60.3 -- 45.2 12.5
10/13/2018 12:00 224.73 0.01 60.3 -- 44.9 12.5
10/13/2018 11:00 224.74 0.04 60.3 -- 45.0 12.5
10/13/2018 10:00 224.73 0.00 60.2 -- 43.8 12.0
10/13/2018 09:00 224.73 0.00 60.3 -- 43.0 12.5
10/13/2018 08:00 224.73 0.00 60.5 -- 42.9 12.3
10/13/2018 07:00 224.73 0.00 60.3 -- 43.0 12.3
10/13/2018 06:00 224.73 0.00 60.3 -- 42.5 12.8
10/13/2018 05:00 224.73 0.00 60.5 -- 42.0 12.0
10/13/2018 04:00 224.73 0.00 60.4 -- 41.0 12.8
10/13/2018 03:00 224.74 0.00 60.6 -- 40.8 13.0
10/13/2018 02:00 224.73 0.00 60.5 -- 41.2 12.5
10/13/2018 01:00 224.74 0.00 60.5 -- 41.3 12.5
10/13/2018 00:00 224.73 0.00 60.4 0.06 42.1 13.0
10/12/2018 23:00 224.73 0.00 60.4 -- 43.3 12.5
10/12/2018 22:00 224.73 0.00 60.4 -- 44.5 12.8
10/12/2018 21:00 224.73 0.00 60.3 -- 46.4 12.5
10/12/2018 20:00 224.74 0.00 60.5 -- 48.9 12.8
10/12/2018 19:00 224.73 0.00 60.4 -- 54.0 12.3
10/12/2018 18:00 224.73 0.00 60.4 -- 57.1 13.5
10/12/2018 17:00 224.77 0.00 60.3 -- 58.4 13.0
10/12/2018 16:00 224.75 0.00 60.4 -- 58.7 12.0
10/12/2018 15:00 224.74 0.00 60.3 -- 58.4 12.8
10/12/2018 14:00 224.77 0.01 60.4 -- 55.9 14.8
10/12/2018 13:00 224.75 0.00 60.4 -- 54.8 12.3
10/12/2018 12:00 224.73 0.00 60.4 -- 54.4 12.5
10/12/2018 11:00 224.76 0.00 60.3 -- 54.7 13.3
10/12/2018 10:00 224.74 0.00 60.4 -- 53.9 12.8
10/12/2018 09:00 224.74 0.00 60.4 -- 53.7 13.0
10/12/2018 08:00 224.73 0.00 60.4 -- 52.9 13.0
10/12/2018 07:00 224.74 0.00 60.3 -- 52.3 12.5
10/12/2018 06:00 224.73 0.00 60.6 -- 52.5 12.0
10/12/2018 05:00 224.73 0.00 60.4 -- 52.2 12.5
10/12/2018 04:00 224.74 0.00 60.3 -- 52.0 12.8
10/12/2018 03:00 224.72 0.00 60.3 -- 52.2 11.5
10/12/2018 02:00 224.73 0.00 60.3 -- 52.4 12.5
10/12/2018 01:00 224.72 0.00 60.4 -- 52.5 11.8
10/12/2018 00:00 224.73 0.00 60.7 0.01 52.3 12.3
10/11/2018 23:00 224.74 0.00 60.6 -- 52.3 12.5
10/11/2018 22:00 224.71 0.00 60.4 -- 52.5 10.8
10/11/2018 21:00 224.71 0.01 60.4 -- 53.1 11.3
10/11/2018 20:00 224.72 0.00 60.5 -- 52.6 12.0
10/11/2018 19:00 224.72 0.08 60.6 -- 52.6 10.8
10/11/2018 18:00 224.70 0.18 60.5 -- 52.8 9.3
10/11/2018 17:00 224.69 0.10 60.6 -- 53.4 9.0
10/11/2018 16:00 224.68 0.03 60.5 -- 53.7 8.5
10/11/2018 15:00 224.69 0.03 60.5 -- 53.6 8.3
10/11/2018 14:00 224.68 0.00 60.6 -- 53.3 8.0
10/11/2018 13:00 224.68 0.01 60.6 -- 53.2 8.5
10/11/2018 12:00 224.68 0.06 60.1 -- 53.4 8.0
10/11/2018 11:00 224.67 0.15 60.8 -- 53.3 7.3
10/11/2018 10:00 224.66 0.08 60.9 -- 53.3 6.5
10/11/2018 09:00 224.63 0.04 60.3 -- 53.2 5.8
10/11/2018 08:00 224.63 0.00 60.8 -- 53.5 5.8
10/11/2018 07:00 224.64 0.01 60.7 -- 53.8 6.0
10/11/2018 06:00 224.64 0.00 60.8 -- 54.3 6.0
10/11/2018 05:00 224.64 0.00 61.1 -- 54.9 6.0
10/11/2018 04:00 224.64 0.00 60.8 -- 55.6 6.0
10/11/2018 03:00 224.64 0.00 61.1 -- 56.3 6.0
10/11/2018 02:00 224.64 0.00 61.3 -- 57.3 6.0
10/11/2018 01:00 224.65 0.00 61.0 -- 58.6 6.0
10/11/2018 00:00 224.64 0.00 60.9 0.78 64.1 6.0
10/10/2018 23:00 224.64 0.00 61.4 -- 63.8 6.0
10/10/2018 22:00 224.64 0.00 60.8 -- 65.1 6.0
10/10/2018 21:00 224.64 0.00 61.8 -- 66.6 6.0
10/10/2018 20:00 224.65 0.00 60.9 -- 68.5 6.0
10/10/2018 19:00 224.65 0.00 60.9 -- 71.5 6.0
10/10/2018 18:00 224.65 0.00 61.1 -- 78.9 6.3
10/10/2018 17:00 224.65 0.00 61.1 -- 82.2 6.3
10/10/2018 16:00 224.65 0.00 60.6 -- 82.5 6.3
10/10/2018 15:00 224.64 0.00 60.6 -- 82.2 6.5
10/10/2018 14:00 224.65 0.00 60.8 -- 81.1 6.3
10/10/2018 13:00 224.65 0.00 60.9 -- 79.6 5.8
10/10/2018 12:00 224.65 0.00 60.7 -- 76.5 6.3
10/10/2018 11:00 224.65 0.00 60.8 -- 73.9 6.0
10/10/2018 10:00 224.64 0.00 60.8 -- 70.2 6.8
10/10/2018 09:00 224.65 0.00 60.8 -- 66.1 6.0
10/10/2018 08:00 224.65 0.00 60.7 -- 65.5 6.8
10/10/2018 07:00 224.65 0.00 61.3 -- 64.3 6.8
10/10/2018 06:00 224.66 0.00 60.9 -- 65.2 6.5
10/10/2018 05:00 224.65 0.00 60.5 -- 65.3 6.8
10/10/2018 04:00 224.65 0.00 60.9 -- 64.7 6.8
10/10/2018 03:00 224.65 0.00 61.0 -- 66.2 6.5
10/10/2018 02:00 224.66 0.00 60.7 -- 63.1 6.8
10/10/2018 01:00 224.65 0.00 60.8 -- 63.4 7.0
10/10/2018 00:00 224.65 0.00 61.0 0.00 65.5 7.0
10/09/2018 23:00 224.66 0.00 60.9 -- 66.9 7.0
10/09/2018 22:00 224.66 0.00 60.9 -- 65.9 7.0
10/09/2018 21:00 224.66 0.00 60.8 -- 65.9 7.0
10/09/2018 20:00 224.66 0.00 61.0 -- 68.7 7.0
10/09/2018 19:00 224.66 0.00 60.8 -- 71.6 7.0
10/09/2018 18:00 224.66 0.00 61.0 -- 76.3 7.0
10/09/2018 17:00 224.65 0.00 61.1 -- 78.0 7.0
10/09/2018 16:00 224.66 0.00 61.1 -- 78.3 7.0
10/09/2018 15:00 224.66 0.00 61.0 -- 77.9 7.3
10/09/2018 14:00 224.65 0.00 60.8 -- 74.8 7.0
10/09/2018 13:00 224.65 0.00 60.9 -- 74.2 7.3
10/09/2018 12:00 224.66 0.00 61.0 -- 69.2 7.0
10/09/2018 11:00 224.66 0.00 61.0 -- 63.8 7.0
10/09/2018 10:00 224.66 0.00 61.1 -- 57.5 7.0
10/09/2018 09:00 224.66 0.00 61.1 -- 54.6 7.0
10/09/2018 08:00 224.66 0.00 61.0 -- 52.6 7.0
10/09/2018 07:00 224.66 0.00 61.0 -- 52.1 7.0
10/09/2018 06:00 224.67 0.00 61.0 -- 51.6 7.3
10/09/2018 05:00 224.67 0.00 61.1 -- 51.0 7.8
10/09/2018 04:00 224.67 0.00 61.1 -- 50.3 7.5
10/09/2018 03:00 224.66 0.00 61.0 -- 50.0 7.0
10/09/2018 02:00 224.67 0.00 61.0 -- 49.8 7.8
10/09/2018 01:00 224.66 0.00 61.1 -- 49.0 7.5
10/09/2018 00:00 224.66 0.00 61.1 0.00 48.5 7.5
10/08/2018 23:00 224.67 0.00 61.1 -- 48.3 8.0
10/08/2018 22:00 224.67 0.00 61.0 -- 48.0 7.5
10/08/2018 21:00 224.67 0.00 61.0 -- 48.3 8.0
10/08/2018 20:00 224.67 0.00 60.8 -- 48.9 8.0
10/08/2018 19:00 224.67 0.00 61.7 -- 49.3 8.0
10/08/2018 18:00 224.68 0.00 61.3 -- 49.6 8.0
10/08/2018 17:00 224.67 0.00 60.9 -- 50.2 8.0
10/08/2018 16:00 224.67 0.00 61.2 -- 50.9 8.0
10/08/2018 15:00 224.67 0.00 61.1 -- 51.8 8.0
10/08/2018 14:00 224.68 0.00 61.0 -- 51.7 8.3
10/08/2018 13:00 224.68 0.00 61.2 -- 50.6 8.0
10/08/2018 12:00 224.68 0.00 61.1 -- 49.9 8.0
10/08/2018 11:00 224.68 0.00 61.2 -- 49.0 8.8
10/08/2018 10:00 224.68 0.00 61.2 -- 48.3 8.3
10/08/2018 09:00 224.68 0.00 61.0 -- 48.5 9.0
10/08/2018 08:00 224.69 0.00 61.2 -- 48.9 9.0
10/08/2018 07:00 224.68 0.00 61.1 -- 49.6 8.5
10/08/2018 06:00 224.69 0.00 60.9 -- 50.4 9.0
10/08/2018 05:00 224.69 0.00 61.3 -- 51.2 9.0
10/08/2018 04:00 224.69 0.01 61.0 -- 52.0 9.0
10/08/2018 03:00 224.69 0.00 60.7 -- 53.7 9.0
10/08/2018 02:00 224.69 0.00 61.4 -- 54.4 9.0
10/08/2018 01:00 224.69 0.00 61.0 -- 54.5 9.0
10/08/2018 00:00 224.70 0.00 60.8 0.01 54.7 9.8
10/07/2018 23:00 224.69 0.00 61.4 -- 55.6 9.0
10/07/2018 22:00 224.69 0.00 61.2 -- 56.3 9.0
10/07/2018 21:00 224.70 0.00 61.0 -- 56.6 10.0
10/07/2018 20:00 224.70 0.01 61.3 -- 57.5 9.3
10/07/2018 19:00 224.69 0.01 60.9 -- 58.9 9.5
10/07/2018 18:00 224.70 0.00 61.0 -- 59.7 9.8
10/07/2018 17:00 224.70 0.00 61.5 -- 63.7 9.8
10/07/2018 16:00 224.70 0.00 61.1 -- 65.7 10.0
10/07/2018 15:00 224.70 0.00 61.3 -- 70.4 9.5
10/07/2018 14:00 224.69 0.00 61.2 -- 71.4 9.8
10/07/2018 13:00 224.71 0.00 61.1 -- 67.8 10.0
10/07/2018 12:00 224.70 0.00 61.2 -- 65.5 10.0
10/07/2018 11:00 224.70 0.00 61.2 -- 64.2 10.3
10/07/2018 10:00 224.71 0.00 61.2 -- 62.5 10.0
10/07/2018 09:00 224.69 0.00 61.2 -- 57.4 9.3
10/07/2018 08:00 224.70 0.00 61.1 -- 54.5 10.0
10/07/2018 07:00 224.70 0.00 61.1 -- 54.4 10.0
10/07/2018 06:00 224.71 0.00 61.2 -- 54.8 10.5
10/07/2018 05:00 224.72 0.00 61.2 -- 54.8 10.8
10/07/2018 04:00 224.70 0.00 61.3 -- 55.2 10.8
10/07/2018 03:00 224.71 0.00 61.2 -- 54.9 11.0
10/07/2018 02:00 224.71 0.00 60.9 -- 54.1 10.0
10/07/2018 01:00 224.71 0.00 61.3 -- 54.2 10.8
10/07/2018 00:00 224.71 0.00 61.4 0.02 54.0 11.0
10/06/2018 23:00 224.71 0.00 61.5 -- 54.3 11.0
10/06/2018 22:00 224.71 0.00 61.0 -- 54.6 11.0
10/06/2018 21:00 224.72 0.00 61.3 -- 54.2 11.0
10/06/2018 20:00 224.72 0.00 61.2 -- 55.0 11.0
10/06/2018 19:00 224.71 0.00 61.0 -- 55.8 11.3
10/06/2018 18:00 224.72 0.00 61.2 -- 57.5 11.5
10/06/2018 17:00 224.72 0.00 61.4 -- 59.8 11.8
10/06/2018 16:00 224.72 0.00 61.1 -- 61.0 12.0
10/06/2018 15:00 224.72 0.00 60.9 -- 58.4 12.0
10/06/2018 14:00 224.73 0.00 61.2 -- 58.4 12.0
10/06/2018 13:00 224.72 0.00 61.2 -- 56.6 12.0
10/06/2018 12:00 224.73 0.00 61.3 -- 56.7 12.5
10/06/2018 11:00 224.73 0.00 61.2 -- 53.7 12.0
10/06/2018 10:00 224.73 0.00 61.0 -- 49.6 12.3
10/06/2018 09:00 224.74 0.00 61.3 -- 43.6 13.0
10/06/2018 08:00 224.73 0.00 61.0 -- 41.4 12.0
10/06/2018 07:00 224.73 0.00 61.2 -- 42.4 12.8
10/06/2018 06:00 224.75 0.00 61.4 -- 43.4 13.3
10/06/2018 05:00 224.73 0.00 61.0 -- 42.6 12.3
10/06/2018 04:00 224.74 0.00 61.0 -- 41.9 13.5
10/06/2018 03:00 224.75 0.00 60.9 -- 42.3 13.3
10/06/2018 02:00 224.74 0.00 61.2 -- 43.1 13.5
10/06/2018 01:00 224.75 0.00 61.6 -- 42.7 14.0
10/06/2018 00:00 224.75 0.00 61.0 0.00 43.5 13.0
10/05/2018 23:00 224.75 0.00 60.5 -- 43.4 14.0
10/05/2018 22:00 224.76 0.00 61.2 -- 44.6 14.0
10/05/2018 21:00 224.75 0.00 61.8 -- 46.4 14.0
10/05/2018 20:00 224.75 0.00 61.5 -- 50.2 14.0
10/05/2018 19:00 224.75 0.00 61.3 -- 53.8 14.0
10/05/2018 18:00 224.75 0.00 61.4 -- 64.4 14.0
10/05/2018 17:00 224.75 0.00 61.3 -- 61.2 14.0
10/05/2018 16:00 224.76 0.00 61.2 -- 64.9 14.0
10/05/2018 15:00 224.75 0.00 61.5 -- 60.7 14.0
10/05/2018 14:00 224.75 0.00 61.6 -- 57.0 14.5
10/05/2018 13:00 224.76 0.00 61.1 -- 54.5 14.3
10/05/2018 12:00 224.75 0.00 61.7 -- 54.6 14.3
10/05/2018 11:00 224.77 0.00 61.3 -- 51.5 15.8
10/05/2018 10:00 224.77 0.00 61.2 -- 49.3 14.8
10/05/2018 09:00 224.76 0.00 61.2 -- 48.2 15.3
10/05/2018 08:00 224.77 0.00 61.5 -- 49.8 15.5
10/05/2018 07:00 224.77 0.00 61.4 -- 52.1 15.3
10/05/2018 06:00 224.77 0.00 61.2 -- 53.1 15.8
10/05/2018 05:00 224.77 0.00 61.5 -- 54.1 15.8
10/05/2018 04:00 224.77 0.00 61.3 -- 59.2 16.3
10/05/2018 03:00 224.77 0.00 61.3 -- 58.4 15.3
10/05/2018 02:00 224.77 0.00 61.4 -- 64.0 16.0
10/05/2018 01:00 224.78 0.00 61.1 -- 64.4 16.3
10/05/2018 00:00 224.77 0.00 61.6 0.00 59.6 16.0
10/04/2018 23:00 224.77 0.00 61.2 -- 60.5 16.0
10/04/2018 22:00 224.78 0.00 61.2 -- 62.6 17.0
10/04/2018 21:00 224.78 0.00 61.6 -- 64.0 16.3
10/04/2018 20:00 224.78 0.00 61.4 -- 65.5 16.5
10/04/2018 19:00 224.78 0.00 61.3 -- 66.7 17.0
10/04/2018 18:00 224.78 0.00 61.2 -- 70.3 16.5
10/04/2018 17:00 224.77 0.00 61.5 -- 66.9 16.3
10/04/2018 16:00 224.78 0.00 61.2 -- 66.8 17.0
10/04/2018 15:00 224.79 0.00 61.6 -- 66.7 17.0
10/04/2018 14:00 224.78 0.00 61.7 -- 65.0 17.0
10/04/2018 13:00 224.78 0.00 61.5 -- 63.9 17.0
10/04/2018 12:00 224.79 0.00 61.5 -- 63.7 17.3
10/04/2018 11:00 224.79 0.00 61.7 -- 61.4 17.3
10/04/2018 10:00 224.78 0.00 61.9 -- 59.2 16.8
10/04/2018 09:00 224.79 0.00 62.0 -- 57.2 17.3
10/04/2018 08:00 224.79 0.00 61.3 -- 55.8 17.3
10/04/2018 07:00 224.79 0.00 61.8 -- 55.6 17.5
10/04/2018 06:00 224.79 0.00 62.1 -- 55.4 17.0
10/04/2018 05:00 224.79 0.00 62.1 -- 55.5 18.0
10/04/2018 04:00 224.79 0.00 61.7 -- 55.4 17.8
10/04/2018 03:00 224.79 0.00 61.3 -- 55.4 17.0
10/04/2018 02:00 224.79 0.00 61.5 -- 55.1 18.0
10/04/2018 01:00 224.79 0.00 62.3 -- 55.6 17.5
10/04/2018 00:00 224.79 0.00 61.9 0.00 56.1 18.0
10/03/2018 23:00 224.79 0.00 61.4 -- 57.1 18.0
10/03/2018 22:00 224.79 0.00 62.1 -- 57.6 17.5
10/03/2018 21:00 224.79 0.00 61.8 -- 57.5 17.3
10/03/2018 20:00 224.79 0.00 61.6 -- 58.4 17.0
10/03/2018 19:00 224.79 0.00 61.8 -- 58.7 17.3
10/03/2018 18:00 224.79 0.00 61.7 -- 59.9 17.0
10/03/2018 17:00 224.78 0.00 62.4 -- 60.8 17.0
10/03/2018 16:00 224.79 0.00 61.8 -- 61.6 17.0
10/03/2018 15:00 224.78 0.00 61.3 -- 59.5 17.0
10/03/2018 14:00 224.78 0.00 62.1 -- 58.3 17.0
10/03/2018 13:00 224.78 0.00 62.4 -- 57.7 16.8
10/03/2018 12:00 224.78 0.00 62.1 -- 55.6 16.3
10/03/2018 11:00 224.78 0.00 61.7 -- 53.8 16.8
10/03/2018 10:00 224.77 0.00 61.7 -- 52.0 16.0
10/03/2018 09:00 224.77 0.00 61.6 -- 50.9 15.8
10/03/2018 08:00 224.77 0.00 61.5 -- 50.3 16.0
10/03/2018 07:00 224.77 0.00 61.3 -- 49.9 16.0
10/03/2018 06:00 224.76 0.01 61.4 -- 50.0 15.0
10/03/2018 05:00 224.76 0.06 61.1 -- 49.8 15.0
10/03/2018 04:00 224.75 0.03 61.4 -- 50.2 13.8
10/03/2018 03:00 224.74 0.01 61.3 -- 49.7 13.0
10/03/2018 02:00 224.74 0.02 61.1 -- 50.4 13.0
10/03/2018 01:00 224.73 0.00 61.2 -- 50.7 12.8
10/03/2018 00:00 224.74 0.00 61.3 0.13 50.7 13.0
10/02/2018 23:00 224.74 0.00 61.0 -- 50.5 12.5
10/02/2018 22:00 224.73 0.01 61.1 -- 50.7 12.0
10/02/2018 21:00 224.73 0.10 61.2 -- 51.3 13.0
10/02/2018 20:00 224.73 0.04 61.0 -- 52.0 11.3
10/02/2018 19:00 224.71 0.09 60.9 -- 52.2 10.8
10/02/2018 18:00 224.71 0.10 61.1 -- 52.1 10.3
10/02/2018 17:00 224.70 0.07 61.1 -- 52.9 9.8
10/02/2018 16:00 224.69 0.07 61.1 -- 53.4 9.0
10/02/2018 15:00 224.69 0.00 61.1 -- 52.9 9.0
10/02/2018 14:00 224.69 0.01 61.0 -- 52.9 8.8
10/02/2018 13:00 224.69 0.00 61.1 -- 52.7 9.0
10/02/2018 12:00 224.69 0.00 61.1 -- 52.3 9.0
10/02/2018 11:00 224.69 0.01 61.1 -- 51.8 9.0
10/02/2018 10:00 224.69 0.00 61.0 -- 51.0 9.0
10/02/2018 09:00 224.69 0.12 61.0 -- 50.8 8.5
10/02/2018 08:00 224.67 0.00 61.1 -- 51.1 8.0
10/02/2018 07:00 224.67 0.02 61.1 -- 51.0 8.0
10/02/2018 06:00 224.67 0.04 61.0 -- 51.0 8.0
10/02/2018 05:00 224.67 0.00 61.0 -- 51.1 8.0
10/02/2018 04:00 224.67 0.00 60.9 -- 51.3 7.5
10/02/2018 03:00 224.67 0.00 61.0 -- 51.6 8.0
10/02/2018 02:00 224.68 0.00 61.0 -- 51.8 8.0
10/02/2018 01:00 224.67 0.01 61.0 -- 51.4 8.0
10/02/2018 00:00 224.67 0.00 61.0 0.69 51.4 8.0
10/01/2018 23:00 224.67 0.00 61.0 -- 51.5 8.0
10/01/2018 22:00 224.67 0.00 61.0 -- 51.7 8.0
10/01/2018 21:00 224.67 0.00 60.9 -- 52.2 8.0
10/01/2018 20:00 224.68 0.00 61.1 -- 52.2 8.0
10/01/2018 19:00 224.68 0.00 61.1 -- 53.2 8.0
10/01/2018 18:00 224.68 0.01 61.0 -- 53.4 8.0
10/01/2018 17:00 224.68 0.01 60.9 -- 54.1 8.3
10/01/2018 16:00 224.68 0.03 61.0 -- 54.7 8.3
10/01/2018 15:00 224.68 0.03 61.1 -- 55.0 8.0
10/01/2018 14:00 224.68 0.09 61.0 -- 55.1 8.0
10/01/2018 13:00 224.67 0.01 61.0 -- 54.8 8.0
10/01/2018 12:00 224.66 0.00 61.0 -- 54.2 7.0
10/01/2018 11:00 224.66 0.01 61.0 -- 54.1 7.5
10/01/2018 10:00 224.67 0.00 61.0 -- 53.8 8.0
10/01/2018 09:00 224.66 0.00 61.0 -- 53.3 7.3
10/01/2018 08:00 224.67 0.00 61.1 -- 52.9 8.0
10/01/2018 07:00 224.67 0.00 61.0 -- 52.4 7.3
10/01/2018 06:00 224.67 0.00 60.9 -- 52.2 8.0
10/01/2018 05:00 224.68 0.00 61.0 -- 51.9 8.0
10/01/2018 04:00 224.67 0.00 61.0 -- 51.2 8.0
10/01/2018 03:00 224.67 0.00 61.0 -- 50.8 8.0
10/01/2018 02:00 224.67 0.00 61.1 -- 50.5 8.5
10/01/2018 01:00 224.68 0.00 60.9 -- 49.2 8.3
10/01/2018 00:00 224.68 0.00 60.6 0.19 47.7 8.0
09/30/2018 23:00 224.68 0.00 60.9 -- 48.6 8.3
09/30/2018 22:00 224.68 0.00 61.4 -- 49.6 8.8
09/30/2018 21:00 224.68 0.00 61.1 -- 51.2 9.0
09/30/2018 20:00 224.68 0.00 60.3 -- 53.6 8.5
09/30/2018 19:00 224.68 0.00 61.2 -- 59.0 8.5
09/30/2018 18:00 224.69 0.00 60.8 -- 65.2 9.0
09/30/2018 17:00 224.69 0.00 60.8 -- 64.5 9.0
09/30/2018 16:00 224.68 0.00 61.2 -- 65.7 8.3
09/30/2018 15:00 224.70 0.00 61.0 -- 64.1 9.8
09/30/2018 14:00 224.70 0.00 60.8 -- 63.8 9.3
09/30/2018 13:00 224.69 0.00 61.2 -- 64.4 9.3
09/30/2018 12:00 224.70 0.00 60.8 -- 62.3 10.0
09/30/2018 11:00 224.70 0.00 61.0 -- 56.9 10.0
09/30/2018 10:00 224.70 0.00 61.1 -- 52.6 9.8
09/30/2018 09:00 224.69 0.00 60.9 -- 46.3 9.8
09/30/2018 08:00 224.70 0.00 61.0 -- 43.8 10.0
09/30/2018 07:00 224.71 0.00 61.0 -- 45.1 10.0
09/30/2018 06:00 224.70 0.00 61.1 -- 44.7 10.0
09/30/2018 05:00 224.71 0.00 60.4 -- 46.1 10.5
09/30/2018 04:00 224.71 0.00 61.2 -- 46.6 10.8
09/30/2018 03:00 224.71 0.00 61.1 -- 47.4 10.8
09/30/2018 02:00 224.71 0.00 60.9 -- 48.6 11.0
09/30/2018 01:00 224.71 0.00 60.7 -- 47.8 11.0
09/30/2018 00:00 224.71 0.00 61.4 0.00 47.0 11.0
09/29/2018 23:00 224.71 0.00 60.9 -- 48.1 11.0
09/29/2018 22:00 224.72 0.00 61.0 -- 49.4 11.0
09/29/2018 21:00 224.72 0.00 61.3 -- 50.8 11.0
09/29/2018 20:00 224.72 0.00 60.9 -- 53.5 11.0
09/29/2018 19:00 224.72 0.00 60.9 -- 58.8 11.8
09/29/2018 18:00 224.72 0.00 61.0 -- 67.3 11.8
09/29/2018 17:00 224.72 0.00 60.7 -- 67.2 12.0
09/29/2018 16:00 224.72 0.00 60.8 -- 67.8 12.3
09/29/2018 15:00 224.73 0.00 60.8 -- 66.0 12.8
09/29/2018 14:00 224.74 0.00 61.2 -- 66.6 12.0
09/29/2018 13:00 224.74 0.00 60.6 -- 65.3 12.8
09/29/2018 12:00 224.74 0.00 61.1 -- 63.6 12.8
09/29/2018 11:00 224.74 0.00 61.0 -- 62.0 13.0
09/29/2018 10:00 224.74 0.00 61.1 -- 58.7 13.0
09/29/2018 09:00 224.74 0.00 61.0 -- 52.6 13.3
09/29/2018 08:00 224.74 0.00 60.9 -- 45.8 13.3
09/29/2018 07:00 224.74 0.00 61.0 -- 45.6 13.0
09/29/2018 06:00 224.75 0.00 60.9 -- 46.0 14.0
09/29/2018 05:00 224.74 0.00 61.0 -- 46.2 13.8
09/29/2018 04:00 224.75 0.00 60.6 -- 46.6 14.0
09/29/2018 03:00 224.75 0.00 61.1 -- 47.4 14.3
09/29/2018 02:00 224.75 0.00 61.1 -- 47.9 14.0
09/29/2018 01:00 224.75 0.00 60.5 -- 48.1 14.0
09/29/2018 00:00 224.76 0.00 60.5 0.00 48.8 15.0
09/28/2018 23:00 224.76 0.00 61.5 -- 49.6 14.8
09/28/2018 22:00 224.76 0.00 61.2 -- 50.8 15.0
09/28/2018 21:00 224.76 0.00 60.7 -- 51.7 15.0
09/28/2018 20:00 224.76 0.00 60.7 -- 53.1 15.0
09/28/2018 19:00 224.76 0.00 60.8 -- 56.9 15.0
09/28/2018 18:00 224.77 0.00 60.6 -- 67.1 15.0
09/28/2018 17:00 224.77 0.00 61.0 -- 62.5 15.3
09/28/2018 16:00 224.76 0.00 61.0 -- 63.5 15.5
09/28/2018 15:00 224.77 0.00 60.8 -- 58.7 16.0
09/28/2018 14:00 224.77 0.00 60.7 -- 57.5 16.0
09/28/2018 13:00 224.77 0.00 60.8 -- 56.0 16.5
09/28/2018 12:00 224.78 0.01 60.8 -- 54.8 16.5
09/28/2018 11:00 224.78 0.00 60.7 -- 55.4 16.0
09/28/2018 10:00 224.78 0.00 60.8 -- 55.2 16.8
09/28/2018 09:00 224.78 0.01 60.7 -- 54.8 16.8
09/28/2018 08:00 224.78 0.00 60.8 -- 54.2 17.0
09/28/2018 07:00 224.78 0.01 60.8 -- 54.2 17.0
09/28/2018 06:00 224.79 0.00 60.8 -- 54.3 17.5
09/28/2018 05:00 224.78 0.01 60.9 -- 55.2 16.8
09/28/2018 04:00 224.79 0.00 60.5 -- 55.0 17.0
09/28/2018 03:00 224.79 0.00 60.9 -- 55.5 17.0
09/28/2018 02:00 224.78 0.00 60.5 -- 55.5 17.3
09/28/2018 01:00 224.80 0.00 60.9 -- 55.6 17.8
09/28/2018 00:00 224.79 0.00 60.8 0.04 55.2 17.0
09/27/2018 23:00 224.79 0.00 60.8 -- 56.0 17.5
09/27/2018 22:00 224.79 0.00 60.3 -- 56.5 18.0
09/27/2018 21:00 224.80 0.00 60.8 -- 57.6 18.0
09/27/2018 20:00 224.79 0.00 61.3 -- 58.1 17.3
09/27/2018 19:00 224.79 0.00 60.8 -- 61.9 17.8
09/27/2018 18:00 224.79 0.00 60.4 -- 66.4 17.5
09/27/2018 17:00 224.79 0.00 60.8 -- 70.1 17.8
09/27/2018 16:00 224.78 0.00 60.2 -- 71.8 17.0
09/27/2018 15:00 224.78 0.00 60.3 -- 68.8 17.3
09/27/2018 14:00 224.79 0.00 60.6 -- 66.4 17.5
09/27/2018 13:00 224.79 0.00 60.8 -- 64.9 17.0
09/27/2018 12:00 224.79 0.00 60.1 -- 64.1 17.5
09/27/2018 11:00 224.79 0.00 60.5 -- 62.4 17.5
09/27/2018 10:00 224.79 0.00 60.6 -- 59.7 17.0
09/27/2018 09:00 224.79 0.00 60.5 -- 57.1 17.8
09/27/2018 08:00 224.79 0.00 60.6 -- 55.6 17.8
09/27/2018 07:00 224.79 0.00 60.3 -- 57.6 17.8
09/27/2018 06:00 224.79 0.00 60.7 -- 59.2 17.5
09/27/2018 05:00 224.79 0.00 60.4 -- 61.0 17.5
09/27/2018 04:00 224.78 0.00 60.1 -- 63.5 17.3
09/27/2018 03:00 224.79 0.00 60.8 -- 64.9 17.0
09/27/2018 02:00 224.79 0.03 60.4 -- 64.5 18.0
09/27/2018 01:00 224.79 0.04 60.6 -- 68.1 16.3
09/27/2018 00:00 224.76 0.15 60.4 0.07 68.2 16.0
09/26/2018 23:00 224.76 0.31 60.2 -- 69.5 14.3
09/26/2018 22:00 224.73 0.00 60.8 -- 73.7 12.3
09/26/2018 21:00 224.73 0.00 60.9 -- 73.3 13.3
09/26/2018 20:00 224.74 0.00 60.0 -- 72.4 12.5
09/26/2018 19:00 224.74 0.00 61.0 -- 75.0 13.0
09/26/2018 18:00 224.73 0.00 60.4 -- 76.4 12.5
09/26/2018 17:00 224.73 0.00 60.0 -- 76.9 12.5
09/26/2018 16:00 224.75 0.00 60.2 -- 78.6 12.8
09/26/2018 15:00 224.72 0.00 59.9 -- 78.1 12.0
09/26/2018 14:00 224.72 0.00 60.0 -- 77.5 12.0
09/26/2018 13:00 224.72 0.00 60.0 -- 76.1 11.8
09/26/2018 12:00 224.73 0.00 60.0 -- 73.7 11.8
09/26/2018 11:00 224.73 0.00 59.9 -- 70.5 11.3
09/26/2018 10:00 224.72 0.00 60.0 -- 69.3 11.5
09/26/2018 09:00 224.72 0.00 60.0 -- 63.9 11.3
09/26/2018 08:00 224.71 0.00 60.0 -- 60.6 10.8
09/26/2018 07:00 224.70 0.00 59.9 -- 60.7 10.5
09/26/2018 06:00 224.71 0.00 59.9 -- 60.9 11.3
09/26/2018 05:00 224.70 0.00 59.9 -- 60.6 10.0
09/26/2018 04:00 224.71 0.00 59.8 -- 60.2 10.0
09/26/2018 03:00 224.71 0.00 59.9 -- 60.5 10.3
09/26/2018 02:00 224.70 0.01 59.9 -- 60.3 9.0
09/26/2018 01:00 224.69 0.00 59.8 -- 60.5 9.8
09/26/2018 00:00 224.69 0.09 59.7 0.47 60.8 8.5
09/25/2018 23:00 224.68 0.07 59.9 -- 60.1 8.0
09/25/2018 22:00 224.67 0.14 59.8 -- 60.0 7.5
09/25/2018 21:00 224.65 0.27 59.6 -- 60.2 5.8
09/25/2018 20:00 224.63 0.14 59.7 -- 60.1 4.8
09/25/2018 19:00 224.60 0.13 59.6 -- 59.2 3.3
09/25/2018 18:00 224.59 0.13 59.6 -- 58.6 2.8
09/25/2018 17:00 224.58 0.14 59.7 -- 58.1 2.5
09/25/2018 16:00 224.58 0.07 59.7 -- 57.9 2.3
09/25/2018 15:00 224.56 0.04 59.5 -- 57.3 2.0
09/25/2018 14:00 224.56 0.04 59.6 -- 54.5 1.8
09/25/2018 13:00 224.56 0.02 59.8 -- 52.0 1.5
09/25/2018 12:00 224.56 0.01 59.6 -- 51.3 1.5
09/25/2018 11:00 224.55 0.00 59.7 -- 51.3 1.0
09/25/2018 10:00 224.56 0.00 59.7 -- 49.5 1.3
09/25/2018 09:00 224.55 0.00 59.6 -- 46.9 1.3
09/25/2018 08:00 224.56 0.00 59.6 -- 44.3 1.8
09/25/2018 07:00 224.55 0.00 59.4 -- 44.7 1.0
09/25/2018 06:00 224.56 0.00 59.5 -- 42.9 1.5
09/25/2018 05:00 224.56 0.00 59.5 -- 41.7 1.8
09/25/2018 04:00 224.56 0.00 59.5 -- 41.9 2.0
09/25/2018 03:00 224.56 0.00 59.6 -- 42.5 2.0
09/25/2018 02:00 224.56 0.00 59.5 -- 43.3 1.5
09/25/2018 01:00 224.56 0.00 59.5 -- 43.5 2.0
09/25/2018 00:00 224.56 0.00 59.5 1.29 42.2 2.0
09/24/2018 23:00 224.56 0.00 59.5 -- 42.2 2.0
09/24/2018 22:00 224.56 0.00 59.5 -- 42.8 2.0
09/24/2018 21:00 224.56 0.00 59.3 -- 43.8 2.0
09/24/2018 20:00 224.56 0.00 59.3 -- 47.2 2.0
09/24/2018 19:00 224.56 0.00 59.4 -- 51.2 2.0
09/24/2018 18:00 224.56 0.00 59.4 -- 54.6 2.0
09/24/2018 17:00 224.56 0.00 59.9 -- 56.2 1.8
09/24/2018 16:00 224.57 0.00 59.4 -- 56.8 2.0
09/24/2018 15:00 224.57 0.00 59.4 -- 56.2 2.0
09/24/2018 14:00 224.57 0.00 59.4 -- 55.8 2.0
09/24/2018 13:00 224.57 0.00 59.4 -- 53.2 1.8
09/24/2018 12:00 224.57 0.00 59.3 -- 52.6 2.3
09/24/2018 11:00 224.58 0.00 59.3 -- 51.0 2.5
09/24/2018 10:00 224.58 0.00 59.3 -- 48.4 2.3
09/24/2018 09:00 224.57 0.00 59.5 -- 47.3 2.0
09/24/2018 08:00 224.58 0.00 59.4 -- 47.4 2.5
09/24/2018 07:00 224.58 0.00 59.4 -- 48.9 2.0
09/24/2018 06:00 224.58 0.00 59.3 -- 49.2 2.3
09/24/2018 05:00 224.58 0.00 59.4 -- 50.8 3.0
09/24/2018 04:00 224.58 0.00 59.3 -- 48.4 3.0
09/24/2018 03:00 224.58 0.00 59.3 -- 47.3 2.0
09/24/2018 02:00 224.58 0.00 59.4 -- 48.2 2.8
09/24/2018 01:00 224.58 0.00 59.2 -- 48.2 3.0
09/24/2018 00:00 224.58 0.00 59.5 0.00 48.9 2.0
09/23/2018 23:00 224.58 0.00 59.4 -- 50.1 3.0
09/23/2018 22:00 224.58 0.00 59.2 -- 51.6 3.0
09/23/2018 21:00 224.58 0.00 59.3 -- 53.0 2.5
09/23/2018 20:00 224.59 0.00 59.4 -- 55.3 3.0
09/23/2018 19:00 224.58 0.00 59.1 -- 59.6 2.8
09/23/2018 18:00 224.58 0.00 59.5 -- 61.5 3.0
09/23/2018 17:00 224.59 0.00 59.3 -- 64.9 3.0
09/23/2018 16:00 224.58 0.00 59.1 -- 64.9 3.0
09/23/2018 15:00 224.59 0.00 59.2 -- 66.1 3.0
09/23/2018 14:00 224.58 0.00 59.3 -- 65.0 3.0
09/23/2018 13:00 224.58 0.00 59.3 -- 64.2 3.0
09/23/2018 12:00 224.59 0.00 59.4 -- 63.9 3.0
09/23/2018 11:00 224.59 0.00 59.3 -- 59.3 3.0
09/23/2018 10:00 224.59 0.00 59.1 -- 49.2 3.0
09/23/2018 09:00 224.59 0.00 59.3 -- 43.4 3.0
09/23/2018 08:00 224.59 0.00 59.3 -- 42.5 3.0
09/23/2018 07:00 224.59 0.00 59.2 -- 42.9 3.0
09/23/2018 06:00 224.59 0.00 59.0 -- 43.3 3.0
09/23/2018 05:00 224.59 0.00 59.4 -- 43.0 3.0
09/23/2018 04:00 224.59 0.00 59.3 -- 43.1 3.0
09/23/2018 03:00 224.60 0.00 59.2 -- 43.9 3.0
09/23/2018 02:00 224.60 0.00 59.2 -- 44.9 3.0
09/23/2018 01:00 224.59 0.00 58.9 -- 46.0 3.0
09/23/2018 00:00 224.60 0.00 59.7 0.00 47.6 3.0
09/22/2018 23:00 224.60 0.00 59.3 -- 48.8 3.0
09/22/2018 22:00 224.60 0.00 58.9 -- 50.5 4.0
09/22/2018 21:00 224.60 0.00 59.1 -- 52.7 3.3
09/22/2018 20:00 224.60 0.00 59.1 -- 56.1 3.0
09/22/2018 19:00 224.60 0.00 59.1 -- 59.5 3.5
09/22/2018 18:00 224.60 0.00 59.1 -- 61.1 4.0
09/22/2018 17:00 224.60 0.00 59.1 -- 63.8 4.0
09/22/2018 16:00 224.61 0.00 58.9 -- 64.5 4.0
09/22/2018 15:00 224.59 0.00 59.0 -- 63.6 3.8
09/22/2018 14:00 224.61 0.00 59.1 -- 63.8 5.3
09/22/2018 13:00 224.62 0.00 58.8 -- 64.3 4.5
09/22/2018 12:00 224.60 0.00 59.3 -- 64.4 4.0
09/22/2018 11:00 224.63 0.00 59.0 -- 65.5 5.3
09/22/2018 10:00 224.63 0.00 58.6 -- 65.5 4.5
09/22/2018 09:00 224.63 0.00 58.9 -- 66.2 5.8
09/22/2018 08:00 224.63 0.00 59.1 -- 68.8 4.5
09/22/2018 07:00 224.62 0.00 58.8 -- 67.0 5.0
09/22/2018 06:00 224.62 0.00 59.2 -- 68.0 4.5
09/22/2018 05:00 224.63 0.00 58.9 -- 68.9 4.8
09/22/2018 04:00 224.62 0.00 59.0 -- 68.7 5.0
09/22/2018 03:00 224.63 0.00 59.1 -- 67.8 4.8
09/22/2018 02:00 224.61 0.00 58.9 -- 67.7 4.5
09/22/2018 01:00 224.63 0.00 58.9 -- 66.5 5.0
09/22/2018 00:00 224.61 0.00 59.0 0.00 64.8 4.5
09/21/2018 23:00 224.64 0.00 59.2 -- 64.0 5.3
09/21/2018 22:00 224.62 0.00 59.3 -- 63.4 4.8
09/21/2018 21:00 224.63 0.00 59.3 -- 62.0 5.0
09/21/2018 20:00 224.63 0.00 59.4 -- 61.1 5.0
09/21/2018 19:00 224.63 0.00 59.3 -- 62.5 5.0
09/21/2018 18:00 224.63 0.00 59.2 -- 63.4 5.0
09/21/2018 17:00 224.63 0.00 59.2 -- 63.6 5.0
09/21/2018 16:00 224.63 0.00 59.4 -- 64.6 5.5
09/21/2018 15:00 224.64 0.00 59.3 -- 66.4 5.5
09/21/2018 14:00 224.63 0.00 59.3 -- 64.3 5.5
09/21/2018 13:00 224.64 0.01 59.1 -- 63.2 5.8
09/21/2018 12:00 224.64 0.00 59.3 -- 60.9 5.5
09/21/2018 11:00 224.64 0.00 59.2 -- 60.9 6.0
09/21/2018 10:00 224.64 0.00 59.3 -- 58.6 6.0
09/21/2018 09:00 224.64 0.00 59.1 -- 56.7 6.0
09/21/2018 08:00 224.65 0.00 59.1 -- 55.6 6.0
09/21/2018 07:00 224.64 0.00 59.2 -- 55.4 6.0
09/21/2018 06:00 224.64 0.00 59.2 -- 55.4 6.0
09/21/2018 05:00 224.65 0.00 59.2 -- 55.4 6.0
09/21/2018 04:00 224.65 0.00 59.3 -- 55.4 6.3
09/21/2018 03:00 224.65 0.00 59.2 -- 55.6 6.3
09/21/2018 02:00 224.65 0.00 59.2 -- 56.0 6.3
09/21/2018 01:00 224.65 0.00 59.1 -- 56.0 6.5
09/21/2018 00:00 224.65 0.00 59.4 0.01 56.1 7.0
09/20/2018 23:00 224.65 0.00 59.1 -- 55.9 6.8
09/20/2018 22:00 224.66 0.00 59.0 -- 55.9 7.0
09/20/2018 21:00 224.66 0.00 59.2 -- 56.3 7.0
09/20/2018 20:00 224.66 0.00 59.3 -- 57.5 7.0
09/20/2018 19:00 224.66 0.00 59.3 -- 58.6 7.0
09/20/2018 18:00 224.66 0.00 58.9 -- 60.5 7.0
09/20/2018 17:00 224.67 0.00 59.3 -- 62.7 7.3
09/20/2018 16:00 224.66 0.00 59.4 -- 62.1 7.0
09/20/2018 15:00 224.66 0.00 58.8 -- 60.9 7.0
09/20/2018 14:00 224.66 0.00 59.3 -- 61.9 7.3
09/20/2018 13:00 224.67 0.00 59.3 -- 59.5 7.8
09/20/2018 12:00 224.66 0.01 58.9 -- 58.6 7.8
09/20/2018 11:00 224.67 0.00 59.1 -- 59.3 8.0
09/20/2018 10:00 224.67 0.00 59.2 -- 58.1 8.0
09/20/2018 09:00 224.67 0.00 59.0 -- 56.8 8.0
09/20/2018 08:00 224.67 0.00 59.1 -- 55.9 8.0
09/20/2018 07:00 224.67 0.00 59.2 -- 55.9 8.0
09/20/2018 06:00 224.67 0.00 59.1 -- 56.2 8.0
09/20/2018 05:00 224.68 0.00 59.0 -- 57.3 8.0
09/20/2018 04:00 224.68 0.00 59.2 -- 57.7 8.3
09/20/2018 03:00 224.68 0.00 59.1 -- 57.7 8.5
09/20/2018 02:00 224.68 0.00 59.2 -- 58.3 8.3
09/20/2018 01:00 224.68 0.00 59.1 -- 58.1 8.8
09/20/2018 00:00 224.69 0.00 59.1 0.01 58.3 9.0
09/19/2018 23:00 224.68 0.00 59.2 -- 58.2 9.0
09/19/2018 22:00 224.69 0.00 58.9 -- 58.9 9.0
09/19/2018 21:00 224.69 0.00 59.0 -- 59.7 9.0
09/19/2018 20:00 224.69 0.00 59.2 -- 61.1 9.0
09/19/2018 19:00 224.69 0.00 59.1 -- 62.0 9.0
09/19/2018 18:00 224.69 0.00 59.0 -- 63.7 9.0
09/19/2018 17:00 224.69 0.00 59.0 -- 64.8 9.0
09/19/2018 16:00 224.69 0.00 59.4 -- 64.6 9.0
09/19/2018 15:00 224.69 0.00 59.1 -- 63.6 9.0
09/19/2018 14:00 224.69 0.00 59.0 -- 62.6 9.0
09/19/2018 13:00 224.69 0.00 59.1 -- 62.7 9.0
09/19/2018 12:00 224.69 0.00 58.8 -- 61.1 9.0
09/19/2018 11:00 224.69 0.00 59.1 -- 60.3 9.0
09/19/2018 10:00 224.70 0.00 59.4 -- 60.3 9.8
09/19/2018 09:00 224.70 0.00 58.9 -- 59.8 9.8
09/19/2018 08:00 224.70 0.00 58.9 -- 59.4 9.8
09/19/2018 07:00 224.70 0.00 58.9 -- 60.2 10.0
09/19/2018 06:00 224.70 0.00 59.3 -- 61.5 9.8
09/19/2018 05:00 224.70 0.00 58.8 -- 63.1 9.8
09/19/2018 04:00 224.70 0.00 58.9 -- 65.1 10.0
09/19/2018 03:00 224.70 0.00 59.1 -- 66.1 10.0
09/19/2018 02:00 224.70 0.00 59.0 -- 65.2 10.0
09/19/2018 01:00 224.70 0.00 59.1 -- 65.8 10.0
09/19/2018 00:00 224.70 0.00 58.8 0.00 67.1 10.0
09/18/2018 23:00 224.70 0.00 59.0 -- 66.7 10.0
09/18/2018 22:00 224.70 0.00 59.1 -- 67.3 10.0
09/18/2018 21:00 224.70 0.00 58.9 -- 68.5 9.8
09/18/2018 20:00 224.70 0.00 58.5 -- 70.4 10.0
09/18/2018 19:00 224.70 0.00 59.4 -- 73.6 9.0
09/18/2018 18:00 224.69 0.00 58.9 -- 77.8 9.0
09/18/2018 17:00 224.69 0.00 58.9 -- 76.8 9.0
09/18/2018 16:00 224.69 0.00 59.1 -- 77.0 9.0
09/18/2018 15:00 -- -- -- -- 75.1 9.0
09/18/2018 14:00 -- -- -- -- 71.0 8.5
09/18/2018 13:00 -- -- -- -- 68.5 8.5
09/18/2018 12:00 -- -- -- -- 67.3 7.8
09/18/2018 11:00 -- -- -- -- 67.0 6.3
09/18/2018 10:00 -- -- -- -- 66.9 4.8
09/18/2018 09:00 -- -- -- -- 67.3 3.3
09/18/2018 08:00 -- -- -- -- 67.1 2.0
09/18/2018 07:00 -- -- -- -- 67.6 2.0
09/18/2018 06:00 -- -- -- -- 68.6 2.0
09/18/2018 05:00 -- -- -- -- 68.6 2.0
09/18/2018 04:00 -- -- -- -- 68.8 2.0
09/18/2018 03:00 -- -- -- -- 68.6 2.0
09/18/2018 02:00 -- -- -- -- 69.4 2.0
09/18/2018 01:00 -- -- -- -- 69.2 2.0
09/18/2018 00:00 -- -- -- 1.31 67.3 2.0